Time,TemperatureF,DewpointF,PressureIn,WindDirection,WindDirectionDegrees,WindSpeedMPH,WindSpeedGustMPH,Humidity,HourlyPrecipIn,Conditions,Clouds,dailyrainin,SoftwareType,DateUTC
2013-05-13 00:00:00,52.0,30.8,29.90,WNW,292,10.0,13.0,44,0.00,,,0.06,VWS V14.01,2013-05-13 04:00:00,
2013-05-13 00:01:00,51.9,30.7,29.90,WNW,286,5.0,13.0,44,0.00,,,0.06,VWS V14.01,2013-05-13 04:01:00,
2013-05-13 00:02:00,51.9,30.7,29.90,WNW,294,11.0,13.0,44,0.00,,,0.06,VWS V14.01,2013-05-13 04:02:00,
2013-05-13 00:03:00,51.9,30.7,29.90,WNW,284,8.0,13.0,44,0.00,,,0.06,VWS V14.01,2013-05-13 04:03:00,
2013-05-13 00:04:00,51.9,30.7,29.90,NW,304,12.0,16.0,44,0.00,,,0.06,VWS V14.01,2013-05-13 04:04:00,
2013-05-13 00:07:00,51.9,30.7,29.90,West,279,5.0,12.0,44,0.00,,,0.00,VWS V14.01,2013-05-13 04:07:00,
2013-05-13 00:08:00,51.9,30.7,29.90,North,350,5.0,12.0,44,0.00,,,0.00,VWS V14.01,2013-05-13 04:08:00,
2013-05-13 00:10:00,51.7,30.5,29.90,WNW,284,4.0,13.0,44,0.00,,,0.00,VWS V14.01,2013-05-13 04:10:00,
2013-05-13 00:12:00,51.7,30.5,29.90,WNW,284,6.0,13.0,44,0.00,,,0.00,VWS V14.01,2013-05-13 04:12:00,
2013-05-13 00:13:00,51.7,30.5,29.90,WNW,284,3.0,13.0,44,0.00,,,0.00,VWS V14.01,2013-05-13 04:13:00,
2013-05-13 00:14:00,51.7,30.5,29.90,WNW,284,6.0,13.0,44,0.00,,,0.00,VWS V14.01,2013-05-13 04:14:00,
2013-05-13 00:15:00,51.6,31.0,29.90,NW,323,8.0,13.0,45,0.00,,,0.00,VWS V14.01,2013-05-13 04:15:00,
2013-05-13 00:17:00,51.6,31.0,29.90,WNW,292,4.0,13.0,45,0.00,,,0.00,VWS V14.01,2013-05-13 04:17:00,
2013-05-13 00:19:00,51.4,30.2,29.91,West,279,5.0,13.0,44,0.00,,,0.00,VWS V14.01,2013-05-13 04:19:00,
2013-05-13 00:20:00,51.4,30.2,29.91,NW,315,11.0,13.0,44,0.00,,,0.00,VWS V14.01,2013-05-13 04:20:00,
2013-05-13 00:21:00,51.4,30.2,29.91,West,271,0.0,13.0,44,0.00,,,0.00,VWS V14.01,2013-05-13 04:21:00,
2013-05-13 00:23:00,51.4,30.2,29.91,NNW,333,5.0,13.0,44,0.00,,,0.00,VWS V14.01,2013-05-13 04:23:00,
2013-05-13 00:26:00,51.3,30.1,29.91,NW,317,8.0,13.0,44,0.00,,,0.00,VWS V14.01,2013-05-13 04:26:00,
2013-05-13 00:28:00,51.3,30.1,29.91,NW,304,8.0,13.0,44,0.00,,,0.00,VWS V14.01,2013-05-13 04:28:00,
2013-05-13 00:29:00,51.3,30.1,29.91,WNW,302,6.0,13.0,44,0.00,,,0.00,VWS V14.01,2013-05-13 04:29:00,
2013-05-13 00:31:00,51.1,30.5,29.91,WNW,289,8.0,13.0,45,0.00,,,0.00,VWS V14.01,2013-05-13 04:31:00,
2013-05-13 00:32:00,51.1,30.5,29.91,WNW,293,5.0,13.0,45,0.00,,,0.00,VWS V14.01,2013-05-13 04:32:00,
2013-05-13 00:33:00,51.1,30.5,29.91,WNW,287,7.0,13.0,45,0.00,,,0.00,VWS V14.01,2013-05-13 04:33:00,
2013-05-13 00:34:00,51.1,30.5,29.91,WNW,298,7.0,13.0,45,0.00,,,0.00,VWS V14.01,2013-05-13 04:34:00,
2013-05-13 00:37:00,51.1,30.5,29.91,WNW,289,6.0,8.0,45,0.00,,,0.00,VWS V14.01,2013-05-13 04:37:00,
2013-05-13 00:38:00,51.0,30.4,29.91,WNW,297,10.0,12.0,45,0.00,,,0.00,VWS V14.01,2013-05-13 04:38:00,
2013-05-13 00:40:00,51.0,30.4,29.91,NW,311,12.0,13.0,45,0.00,,,0.00,VWS V14.01,2013-05-13 04:40:00,
2013-05-13 00:43:00,51.0,30.4,29.91,WNW,289,5.0,13.0,45,0.00,,,0.00,VWS V14.01,2013-05-13 04:43:00,
2013-05-13 00:44:00,50.8,30.2,29.91,WNW,293,5.0,13.0,45,0.00,,,0.00,VWS V14.01,2013-05-13 04:44:00,
2013-05-13 00:46:00,50.8,30.2,29.91,West,267,8.0,14.0,45,0.00,,,0.00,VWS V14.01,2013-05-13 04:46:00,
2013-05-13 00:47:00,50.8,30.2,29.91,WNW,292,7.0,14.0,45,0.00,,,0.00,VWS V14.01,2013-05-13 04:47:00,
2013-05-13 00:49:00,50.8,30.2,29.91,WNW,283,11.0,14.0,45,0.00,,,0.00,VWS V14.01,2013-05-13 04:49:00,
2013-05-13 00:51:00,50.7,30.1,29.91,WNW,292,7.0,14.0,45,0.00,,,0.00,VWS V14.01,2013-05-13 04:51:00,
2013-05-13 00:52:00,50.7,30.1,29.91,West,279,2.0,14.0,45,0.00,,,0.00,VWS V14.01,2013-05-13 04:52:00,
2013-05-13 00:53:00,50.7,30.1,29.91,WNW,296,9.0,14.0,45,0.00,,,0.00,VWS V14.01,2013-05-13 04:53:00,
2013-05-13 00:54:00,50.7,30.7,29.91,WNW,288,5.0,14.0,46,0.00,,,0.00,VWS V14.01,2013-05-13 04:54:00,
2013-05-13 00:56:00,50.5,30.5,29.91,WNW,288,9.0,14.0,46,0.00,,,0.00,VWS V14.01,2013-05-13 04:56:00,
2013-05-13 00:57:00,50.5,30.5,29.91,WNW,285,4.0,14.0,46,0.00,,,0.00,VWS V14.01,2013-05-13 04:57:00,
2013-05-13 00:59:00,50.5,31.0,29.91,WNW,292,8.0,14.0,47,0.00,,,0.00,VWS V14.01,2013-05-13 04:59:00,
2013-05-13 01:00:00,50.4,31.0,29.91,WNW,288,3.0,14.0,47,0.00,,,0.00,VWS V14.01,2013-05-13 05:00:00,
2013-05-13 01:03:00,50.2,30.8,29.91,WNW,290,2.0,14.0,47,0.00,,,0.00,VWS V14.01,2013-05-13 05:03:00,
2013-05-13 01:05:00,50.2,30.8,29.92,WNW,301,4.0,8.0,47,0.00,,,0.00,VWS V14.01,2013-05-13 05:05:00,
2013-05-13 01:06:00,50.1,30.7,29.92,NW,307,7.0,8.0,47,0.00,,,0.00,VWS V14.01,2013-05-13 05:06:00,
2013-05-13 01:07:00,50.1,30.7,29.92,West,281,7.0,9.0,47,0.00,,,0.00,VWS V14.01,2013-05-13 05:07:00,
2013-05-13 01:08:00,50.1,30.7,29.92,West,281,2.0,9.0,47,0.00,,,0.00,VWS V14.01,2013-05-13 05:08:00,
2013-05-13 01:10:00,49.9,30.5,29.92,WNW,286,4.0,9.0,47,0.00,,,0.00,VWS V14.01,2013-05-13 05:10:00,
2013-05-13 01:14:00,49.8,30.9,29.92,WNW,284,0.0,9.0,48,0.00,,,0.00,VWS V14.01,2013-05-13 05:14:00,
2013-05-13 01:17:00,49.6,30.7,29.92,WNW,284,0.0,9.0,48,0.00,,,0.00,VWS V14.01,2013-05-13 05:17:00,
2013-05-13 01:18:00,49.6,30.7,29.92,WNW,282,5.0,9.0,48,0.00,,,0.00,VWS V14.01,2013-05-13 05:18:00,
2013-05-13 01:21:00,49.6,31.2,29.92,West,262,0.0,9.0,49,0.00,,,0.00,VWS V14.01,2013-05-13 05:21:00,
2013-05-13 01:23:00,49.5,30.6,29.92,West,265,1.0,9.0,48,0.00,,,0.00,VWS V14.01,2013-05-13 05:23:00,
2013-05-13 01:26:00,49.4,31.1,29.92,WNW,294,4.0,9.0,49,0.00,,,0.00,VWS V14.01,2013-05-13 05:26:00,
2013-05-13 01:27:00,49.4,31.1,29.92,WNW,285,0.0,9.0,49,0.00,,,0.00,VWS V14.01,2013-05-13 05:27:00,
2013-05-13 01:28:00,49.4,31.1,29.92,West,275,3.0,9.0,49,0.00,,,0.00,VWS V14.01,2013-05-13 05:28:00,
2013-05-13 01:29:00,49.4,31.1,29.92,West,275,0.0,9.0,49,0.00,,,0.00,VWS V14.01,2013-05-13 05:29:00,
2013-05-13 01:33:00,49.2,30.9,29.92,West,271,0.0,9.0,49,0.00,,,0.00,VWS V14.01,2013-05-13 05:33:00,
2013-05-13 01:34:00,49.2,30.9,29.93,West,271,0.0,9.0,49,0.00,,,0.00,VWS V14.01,2013-05-13 05:34:00,
2013-05-13 01:39:00,49.1,31.3,29.93,West,273,0.0,6.0,50,0.00,,,0.00,VWS V14.01,2013-05-13 05:39:00,
2013-05-13 01:40:00,48.9,31.1,29.93,West,273,0.0,6.0,50,0.00,,,0.00,VWS V14.01,2013-05-13 05:40:00,
2013-05-13 01:41:00,48.9,31.1,29.93,West,273,0.0,6.0,50,0.00,,,0.00,VWS V14.01,2013-05-13 05:41:00,
2013-05-13 01:45:00,48.8,31.5,29.93,West,268,0.0,7.0,51,0.00,,,0.00,VWS V14.01,2013-05-13 05:45:00,
2013-05-13 01:46:00,48.8,31.0,29.93,West,268,0.0,7.0,50,0.00,,,0.00,VWS V14.01,2013-05-13 05:46:00,
2013-05-13 01:48:00,48.6,31.3,29.93,West,272,0.0,7.0,51,0.00,,,0.00,VWS V14.01,2013-05-13 05:48:00,
2013-05-13 01:51:00,48.6,31.3,29.92,West,272,0.0,7.0,51,0.00,,,0.00,VWS V14.01,2013-05-13 05:51:00,
2013-05-13 01:53:00,48.5,31.2,29.92,West,272,0.0,7.0,51,0.00,,,0.00,VWS V14.01,2013-05-13 05:53:00,
2013-05-13 01:54:00,48.5,31.2,29.92,West,272,1.0,7.0,51,0.00,,,0.00,VWS V14.01,2013-05-13 05:54:00,
2013-05-13 01:57:00,48.3,31.0,29.92,West,272,0.0,7.0,51,0.00,,,0.00,VWS V14.01,2013-05-13 05:57:00,
2013-05-13 01:58:00,48.3,31.5,29.92,West,272,0.0,7.0,52,0.00,,,0.00,VWS V14.01,2013-05-13 05:58:00,
2013-05-13 02:01:00,48.2,31.4,29.92,WNW,284,1.0,7.0,52,0.00,,,0.00,VWS V14.01,2013-05-13 06:01:00,
2013-05-13 02:04:00,48.2,31.4,29.92,West,269,7.0,7.0,52,0.00,,,0.00,VWS V14.01,2013-05-13 06:04:00,
2013-05-13 02:06:00,48.0,31.2,29.92,WSW,256,0.0,8.0,52,0.00,,,0.00,VWS V14.01,2013-05-13 06:06:00,
2013-05-13 02:07:00,48.0,31.2,29.92,WSW,256,0.0,8.0,52,0.00,,,0.00,VWS V14.01,2013-05-13 06:07:00,
2013-05-13 02:11:00,47.9,31.6,29.92,West,281,0.0,8.0,53,0.00,,,0.00,VWS V14.01,2013-05-13 06:11:00,
2013-05-13 02:12:00,47.9,31.6,29.92,West,281,0.0,8.0,53,0.00,,,0.00,VWS V14.01,2013-05-13 06:12:00,
2013-05-13 02:13:00,47.9,31.6,29.92,West,281,0.0,8.0,53,0.00,,,0.00,VWS V14.01,2013-05-13 06:13:00,
2013-05-13 02:15:00,47.7,31.4,29.92,West,280,0.0,8.0,53,0.00,,,0.00,VWS V14.01,2013-05-13 06:15:00,
2013-05-13 02:18:00,47.7,31.9,29.92,West,281,0.0,8.0,54,0.00,,,0.00,VWS V14.01,2013-05-13 06:18:00,
2013-05-13 02:19:00,47.6,31.8,29.91,West,281,0.0,8.0,54,0.00,,,0.00,VWS V14.01,2013-05-13 06:19:00,
2013-05-13 02:20:00,47.6,31.8,29.91,West,271,1.0,8.0,54,0.00,,,0.00,VWS V14.01,2013-05-13 06:20:00,
2013-05-13 02:22:00,47.6,31.8,29.91,West,270,5.0,8.0,54,0.00,,,0.00,VWS V14.01,2013-05-13 06:22:00,
2013-05-13 02:27:00,47.4,32.1,29.91,West,270,0.0,8.0,55,0.00,,,0.00,VWS V14.01,2013-05-13 06:27:00,
2013-05-13 02:28:00,47.3,32.0,29.91,West,270,0.0,8.0,55,0.00,,,0.00,VWS V14.01,2013-05-13 06:28:00,
2013-05-13 02:29:00,47.3,32.0,29.91,West,263,2.0,8.0,55,0.00,,,0.00,VWS V14.01,2013-05-13 06:29:00,
2013-05-13 02:30:00,47.3,32.0,29.91,West,263,0.0,8.0,55,0.00,,,0.00,VWS V14.01,2013-05-13 06:30:00,
2013-05-13 02:32:00,47.3,32.0,29.91,West,263,1.0,8.0,55,0.00,,,0.00,VWS V14.01,2013-05-13 06:32:00,
2013-05-13 02:34:00,47.1,31.8,29.91,West,263,0.0,0.0,55,0.00,,,0.00,VWS V14.01,2013-05-13 06:34:00,
2013-05-13 02:37:00,47.1,32.2,29.91,West,263,0.0,6.0,56,0.00,,,0.00,VWS V14.01,2013-05-13 06:37:00,
2013-05-13 02:38:00,47.1,32.2,29.91,West,263,0.0,6.0,56,0.00,,,0.00,VWS V14.01,2013-05-13 06:38:00,
2013-05-13 02:40:00,47.0,32.1,29.91,West,263,0.0,6.0,56,0.00,,,0.00,VWS V14.01,2013-05-13 06:40:00,
2013-05-13 02:43:00,46.8,32.4,29.91,West,263,1.0,6.0,57,0.00,,,0.00,VWS V14.01,2013-05-13 06:43:00,
2013-05-13 02:44:00,46.8,32.4,29.91,West,263,0.0,6.0,57,0.00,,,0.00,VWS V14.01,2013-05-13 06:44:00,
2013-05-13 02:45:00,46.8,32.4,29.91,West,263,2.0,6.0,57,0.00,,,0.00,VWS V14.01,2013-05-13 06:45:00,
2013-05-13 02:49:00,46.7,32.3,29.91,West,263,0.0,6.0,57,0.00,,,0.00,VWS V14.01,2013-05-13 06:49:00,
2013-05-13 02:50:00,46.7,32.3,29.91,West,263,2.0,6.0,57,0.00,,,0.00,VWS V14.01,2013-05-13 06:50:00,
2013-05-13 02:51:00,46.5,32.1,29.91,West,265,5.0,6.0,57,0.00,,,0.00,VWS V14.01,2013-05-13 06:51:00,
2013-05-13 02:52:00,46.5,32.5,29.91,West,267,3.0,6.0,58,0.00,,,0.00,VWS V14.01,2013-05-13 06:52:00,
2013-05-13 02:54:00,46.5,32.5,29.91,West,268,4.0,6.0,58,0.00,,,0.00,VWS V14.01,2013-05-13 06:54:00,
2013-05-13 02:55:00,46.4,32.4,29.91,West,268,0.0,6.0,58,0.00,,,0.00,VWS V14.01,2013-05-13 06:55:00,
2013-05-13 03:00:00,46.2,32.2,29.91,West,281,4.0,6.0,58,0.00,,,0.00,VWS V14.01,2013-05-13 07:00:00,
2013-05-13 03:01:00,46.2,32.2,29.91,West,281,0.0,6.0,58,0.00,,,0.00,VWS V14.01,2013-05-13 07:01:00,
2013-05-13 03:02:00,46.2,32.2,29.91,West,279,0.0,7.0,58,0.00,,,0.00,VWS V14.01,2013-05-13 07:02:00,
2013-05-13 03:06:00,46.1,32.6,29.91,West,270,5.0,6.0,59,0.00,,,0.00,VWS V14.01,2013-05-13 07:06:00,
2013-05-13 03:07:00,46.1,32.6,29.91,West,264,4.0,6.0,59,0.00,,,0.00,VWS V14.01,2013-05-13 07:07:00,
2013-05-13 03:08:00,46.1,32.6,29.91,West,264,0.0,6.0,59,0.00,,,0.00,VWS V14.01,2013-05-13 07:08:00,
2013-05-13 03:12:00,46.1,32.6,29.91,West,261,0.0,7.0,59,0.00,,,0.00,VWS V14.01,2013-05-13 07:12:00,
2013-05-13 03:14:00,46.0,32.5,29.91,West,269,7.0,8.0,59,0.00,,,0.00,VWS V14.01,2013-05-13 07:14:00,
2013-05-13 03:15:00,46.0,32.5,29.91,West,269,0.0,8.0,59,0.00,,,0.00,VWS V14.01,2013-05-13 07:15:00,
2013-05-13 03:18:00,46.0,32.5,29.92,West,268,0.0,8.0,59,0.00,,,0.00,VWS V14.01,2013-05-13 07:18:00,
2013-05-13 03:19:00,46.0,32.5,29.92,West,268,4.0,8.0,59,0.00,,,0.00,VWS V14.01,2013-05-13 07:19:00,
2013-05-13 03:20:00,46.0,32.5,29.92,West,270,4.0,8.0,59,0.00,,,0.00,VWS V14.01,2013-05-13 07:20:00,
2013-05-13 03:23:00,46.0,32.5,29.92,West,269,4.0,8.0,59,0.00,,,0.00,VWS V14.01,2013-05-13 07:23:00,
2013-05-13 03:24:00,46.0,32.5,29.92,West,268,6.0,8.0,59,0.00,,,0.00,VWS V14.01,2013-05-13 07:24:00,
2013-05-13 03:25:00,46.0,32.5,29.92,West,267,0.0,8.0,59,0.00,,,0.00,VWS V14.01,2013-05-13 07:25:00,
2013-05-13 03:27:00,46.0,32.5,29.92,West,265,0.0,8.0,59,0.00,,,0.00,VWS V14.01,2013-05-13 07:27:00,
2013-05-13 03:29:00,46.0,32.5,29.92,West,266,0.0,8.0,59,0.00,,,0.00,VWS V14.01,2013-05-13 07:29:00,
2013-05-13 03:31:00,45.8,32.3,29.92,West,266,0.0,8.0,59,0.00,,,0.00,VWS V14.01,2013-05-13 07:31:00,
2013-05-13 03:32:00,45.8,32.3,29.92,West,266,0.0,8.0,59,0.00,,,0.00,VWS V14.01,2013-05-13 07:32:00,
2013-05-13 03:34:00,45.8,32.3,29.92,West,267,3.0,8.0,59,0.00,,,0.00,VWS V14.01,2013-05-13 07:34:00,
2013-05-13 03:35:00,45.8,31.9,29.92,West,267,0.0,4.0,58,0.00,,,0.00,VWS V14.01,2013-05-13 07:35:00,
2013-05-13 03:38:00,45.8,31.9,29.92,West,281,0.0,7.0,58,0.00,,,0.00,VWS V14.01,2013-05-13 07:38:00,
2013-05-13 03:39:00,45.8,31.9,29.92,West,275,0.0,7.0,58,0.00,,,0.00,VWS V14.01,2013-05-13 07:39:00,
2013-05-13 03:40:00,45.8,31.9,29.92,West,275,0.0,7.0,58,0.00,,,0.00,VWS V14.01,2013-05-13 07:40:00,
2013-05-13 03:42:00,45.8,31.9,29.92,West,274,0.0,7.0,58,0.00,,,0.00,VWS V14.01,2013-05-13 07:42:00,
2013-05-13 03:44:00,45.8,31.9,29.92,West,273,0.0,7.0,58,0.00,,,0.00,VWS V14.01,2013-05-13 07:44:00,
2013-05-13 03:45:00,45.8,31.9,29.92,West,273,0.0,7.0,58,0.00,,,0.00,VWS V14.01,2013-05-13 07:45:00,
2013-05-13 03:46:00,45.8,31.9,29.92,West,273,4.0,7.0,58,0.00,,,0.00,VWS V14.01,2013-05-13 07:46:00,
2013-05-13 03:48:00,45.8,31.5,29.92,West,271,0.0,7.0,57,0.00,,,0.00,VWS V14.01,2013-05-13 07:48:00,
2013-05-13 03:50:00,45.8,31.5,29.92,West,271,0.0,7.0,57,0.00,,,0.00,VWS V14.01,2013-05-13 07:50:00,
2013-05-13 03:51:00,45.8,31.5,29.92,West,271,3.0,7.0,57,0.00,,,0.00,VWS V14.01,2013-05-13 07:51:00,
2013-05-13 03:53:00,45.8,31.5,29.92,West,263,1.0,7.0,57,0.00,,,0.00,VWS V14.01,2013-05-13 07:53:00,
2013-05-13 03:54:00,45.8,31.5,29.92,West,263,0.0,7.0,57,0.00,,,0.00,VWS V14.01,2013-05-13 07:54:00,
2013-05-13 03:57:00,45.8,31.5,29.92,West,263,0.0,7.0,57,0.00,,,0.00,VWS V14.01,2013-05-13 07:57:00,
2013-05-13 03:58:00,45.8,31.5,29.92,West,263,0.0,7.0,57,0.00,,,0.00,VWS V14.01,2013-05-13 07:58:00,
2013-05-13 03:59:00,45.8,31.5,29.92,West,263,3.0,7.0,57,0.00,,,0.00,VWS V14.01,2013-05-13 07:59:00,
2013-05-13 04:01:00,45.8,31.5,29.92,West,264,4.0,7.0,57,0.00,,,0.00,VWS V14.01,2013-05-13 08:01:00,
2013-05-13 04:02:00,45.8,31.5,29.92,West,266,0.0,7.0,57,0.00,,,0.00,VWS V14.01,2013-05-13 08:02:00,
2013-05-13 04:03:00,45.8,31.5,29.93,West,266,0.0,7.0,57,0.00,,,0.00,VWS V14.01,2013-05-13 08:03:00,
2013-05-13 04:04:00,45.7,31.4,29.93,West,266,0.0,0.0,57,0.00,,,0.00,VWS V14.01,2013-05-13 08:04:00,
2013-05-13 04:07:00,45.7,31.8,29.93,West,266,0.0,4.0,58,0.00,,,0.00,VWS V14.01,2013-05-13 08:07:00,
2013-05-13 04:09:00,45.7,31.8,29.93,West,266,0.0,4.0,58,0.00,,,0.00,VWS V14.01,2013-05-13 08:09:00,
2013-05-13 04:10:00,45.5,31.6,29.93,West,266,0.0,4.0,58,0.00,,,0.00,VWS V14.01,2013-05-13 08:10:00,
2013-05-13 04:11:00,45.5,31.6,29.93,West,266,0.0,4.0,58,0.00,,,0.00,VWS V14.01,2013-05-13 08:11:00,
2013-05-13 04:13:00,45.5,31.6,29.93,West,266,0.0,4.0,58,0.00,,,0.00,VWS V14.01,2013-05-13 08:13:00,
2013-05-13 04:15:00,45.4,31.5,29.93,West,266,0.0,4.0,58,0.00,,,0.00,VWS V14.01,2013-05-13 08:15:00,
2013-05-13 04:17:00,45.4,31.9,29.93,West,266,0.0,4.0,59,0.00,,,0.00,VWS V14.01,2013-05-13 08:17:00,
2013-05-13 04:18:00,45.4,31.9,29.93,West,266,0.0,4.0,59,0.00,,,0.00,VWS V14.01,2013-05-13 08:18:00,
2013-05-13 04:19:00,45.4,31.9,29.93,West,266,0.0,4.0,59,0.00,,,0.00,VWS V14.01,2013-05-13 08:19:00,
2013-05-13 04:24:00,45.2,31.7,29.93,West,266,0.0,4.0,59,0.00,,,0.00,VWS V14.01,2013-05-13 08:24:00,
2013-05-13 04:25:00,45.2,31.7,29.93,West,266,0.0,4.0,59,0.00,,,0.00,VWS V14.01,2013-05-13 08:25:00,
2013-05-13 04:26:00,45.1,31.6,29.93,West,266,0.0,4.0,59,0.00,,,0.00,VWS V14.01,2013-05-13 08:26:00,
2013-05-13 04:27:00,45.1,31.6,29.93,West,266,0.0,4.0,59,0.00,,,0.00,VWS V14.01,2013-05-13 08:27:00,
2013-05-13 04:28:00,45.1,31.6,29.93,West,266,0.0,4.0,59,0.00,,,0.00,VWS V14.01,2013-05-13 08:28:00,
2013-05-13 04:31:00,44.9,31.9,29.93,West,266,0.0,4.0,60,0.00,,,0.00,VWS V14.01,2013-05-13 08:31:00,
2013-05-13 04:32:00,44.9,31.9,29.93,West,266,0.0,4.0,60,0.00,,,0.00,VWS V14.01,2013-05-13 08:32:00,
2013-05-13 04:33:00,44.9,31.9,29.93,West,266,0.0,4.0,60,0.00,,,0.00,VWS V14.01,2013-05-13 08:33:00,
2013-05-13 04:37:00,44.8,32.2,29.93,West,266,0.0,3.0,61,0.00,,,0.00,VWS V14.01,2013-05-13 08:37:00,
2013-05-13 04:39:00,44.6,32.0,29.93,West,266,0.0,3.0,61,0.00,,,0.00,VWS V14.01,2013-05-13 08:39:00,
2013-05-13 04:41:00,44.6,32.4,29.93,West,266,0.0,3.0,62,0.00,,,0.00,VWS V14.01,2013-05-13 08:41:00,
2013-05-13 04:44:00,44.5,32.7,29.93,West,266,0.0,6.0,63,0.00,,,0.00,VWS V14.01,2013-05-13 08:44:00,
2013-05-13 04:45:00,44.5,32.7,29.93,West,266,0.0,6.0,63,0.00,,,0.00,VWS V14.01,2013-05-13 08:45:00,
2013-05-13 04:46:00,44.5,32.7,29.93,West,263,0.0,6.0,63,0.00,,,0.00,VWS V14.01,2013-05-13 08:46:00,
2013-05-13 04:48:00,44.5,32.7,29.93,West,263,0.0,6.0,63,0.00,,,0.00,VWS V14.01,2013-05-13 08:48:00,
2013-05-13 04:50:00,44.3,32.9,29.93,West,263,3.0,6.0,64,0.00,,,0.00,VWS V14.01,2013-05-13 08:50:00,
2013-05-13 04:51:00,44.3,32.9,29.93,West,263,2.0,7.0,64,0.00,,,0.00,VWS V14.01,2013-05-13 08:51:00,
2013-05-13 04:54:00,44.3,32.9,29.93,West,264,0.0,7.0,64,0.00,,,0.00,VWS V14.01,2013-05-13 08:54:00,
2013-05-13 04:55:00,44.3,32.9,29.93,West,264,4.0,7.0,64,0.00,,,0.00,VWS V14.01,2013-05-13 08:55:00,
2013-05-13 04:57:00,44.2,32.8,29.93,West,264,0.0,7.0,64,0.00,,,0.00,VWS V14.01,2013-05-13 08:57:00,
2013-05-13 04:58:00,44.2,32.8,29.93,West,264,2.0,7.0,64,0.00,,,0.00,VWS V14.01,2013-05-13 08:58:00,
2013-05-13 05:00:00,44.2,32.8,29.93,West,263,0.0,7.0,64,0.00,,,0.00,VWS V14.01,2013-05-13 09:00:00,
2013-05-13 05:04:00,44.1,32.7,29.94,West,263,0.0,7.0,64,0.00,,,0.00,VWS V14.01,2013-05-13 09:04:00,
2013-05-13 05:06:00,44.1,32.7,29.94,West,263,0.0,0.0,64,0.00,,,0.00,VWS V14.01,2013-05-13 09:06:00,
2013-05-13 05:10:00,44.1,32.7,29.94,West,263,3.0,4.0,64,0.00,,,0.00,VWS V14.01,2013-05-13 09:10:00,
2013-05-13 05:12:00,44.1,32.7,29.94,West,263,0.0,4.0,64,0.00,,,0.00,VWS V14.01,2013-05-13 09:12:00,
2013-05-13 05:14:00,44.1,32.3,29.94,West,263,0.0,4.0,63,0.00,,,0.00,VWS V14.01,2013-05-13 09:14:00,
2013-05-13 05:15:00,44.1,32.3,29.94,West,263,0.0,4.0,63,0.00,,,0.00,VWS V14.01,2013-05-13 09:15:00,
2013-05-13 05:18:00,43.9,32.5,29.94,West,263,0.0,4.0,64,0.00,,,0.00,VWS V14.01,2013-05-13 09:18:00,
2013-05-13 05:19:00,43.9,32.5,29.94,West,263,0.0,4.0,64,0.00,,,0.00,VWS V14.01,2013-05-13 09:19:00,
2013-05-13 05:23:00,43.9,32.5,29.94,West,263,2.0,5.0,64,0.00,,,0.00,VWS V14.01,2013-05-13 09:23:00,
2013-05-13 05:24:00,43.9,32.5,29.94,West,263,0.0,5.0,64,0.00,,,0.00,VWS V14.01,2013-05-13 09:24:00,
2013-05-13 05:25:00,43.9,32.5,29.94,West,263,0.0,5.0,64,0.00,,,0.00,VWS V14.01,2013-05-13 09:25:00,
2013-05-13 05:26:00,43.9,32.5,29.94,West,263,0.0,5.0,64,0.00,,,0.00,VWS V14.01,2013-05-13 09:26:00,
2013-05-13 05:30:00,43.9,32.5,29.94,West,263,4.0,6.0,64,0.00,,,0.00,VWS V14.01,2013-05-13 09:30:00,
2013-05-13 05:31:00,43.8,32.4,29.94,West,263,0.0,6.0,64,0.00,,,0.00,VWS V14.01,2013-05-13 09:31:00,
2013-05-13 05:32:00,43.8,32.4,29.94,West,263,0.0,6.0,64,0.00,,,0.00,VWS V14.01,2013-05-13 09:32:00,
2013-05-13 05:35:00,43.8,32.4,29.95,West,263,0.0,0.0,64,0.00,,,0.00,VWS V14.01,2013-05-13 09:35:00,
2013-05-13 05:36:00,43.8,32.4,29.95,West,263,0.0,0.0,64,0.00,,,0.00,VWS V14.01,2013-05-13 09:36:00,
2013-05-13 05:37:00,43.8,32.4,29.95,West,263,0.0,0.0,64,0.00,,,0.00,VWS V14.01,2013-05-13 09:37:00,
2013-05-13 05:40:00,43.8,32.4,29.95,West,263,0.0,0.0,64,0.00,,,0.00,VWS V14.01,2013-05-13 09:40:00,
2013-05-13 05:41:00,43.8,32.4,29.95,West,263,0.0,0.0,64,0.00,,,0.00,VWS V14.01,2013-05-13 09:41:00,
2013-05-13 05:42:00,43.6,32.2,29.95,West,263,0.0,0.0,64,0.00,,,0.00,VWS V14.01,2013-05-13 09:42:00,
2013-05-13 05:43:00,43.6,32.6,29.95,West,263,0.0,0.0,65,0.00,,,0.00,VWS V14.01,2013-05-13 09:43:00,
2013-05-13 05:46:00,43.6,32.6,29.95,West,263,0.0,0.0,65,0.00,,,0.00,VWS V14.01,2013-05-13 09:46:00,
2013-05-13 05:48:00,43.5,32.5,29.95,West,263,0.0,0.0,65,0.00,,,0.00,VWS V14.01,2013-05-13 09:48:00,
2013-05-13 05:49:00,43.5,32.5,29.95,West,263,0.0,0.0,65,0.00,,,0.00,VWS V14.01,2013-05-13 09:49:00,
2013-05-13 05:50:00,43.5,32.5,29.95,West,263,0.0,0.0,65,0.00,,,0.00,VWS V14.01,2013-05-13 09:50:00,
2013-05-13 05:52:00,43.5,32.9,29.95,West,263,0.0,0.0,66,0.00,,,0.00,VWS V14.01,2013-05-13 09:52:00,
2013-05-13 05:53:00,43.5,32.9,29.95,West,263,0.0,0.0,66,0.00,,,0.00,VWS V14.01,2013-05-13 09:53:00,
2013-05-13 05:55:00,43.5,32.9,29.95,West,263,0.0,0.0,66,0.00,,,0.00,VWS V14.01,2013-05-13 09:55:00,
2013-05-13 05:56:00,43.5,32.9,29.95,West,263,0.0,0.0,66,0.00,,,0.00,VWS V14.01,2013-05-13 09:56:00,
2013-05-13 05:59:00,43.3,32.7,29.95,West,262,0.0,4.0,66,0.00,,,0.00,VWS V14.01,2013-05-13 09:59:00,
2013-05-13 06:00:00,43.3,33.1,29.95,West,262,0.0,4.0,67,0.00,,,0.00,VWS V14.01,2013-05-13 10:00:00,
2013-05-13 06:01:00,43.3,33.1,29.95,WSW,237,4.0,6.0,67,0.00,,,0.00,VWS V14.01,2013-05-13 10:01:00,
2013-05-13 06:03:00,43.3,33.1,29.95,WSW,238,4.0,6.0,67,0.00,,,0.00,VWS V14.01,2013-05-13 10:03:00,
2013-05-13 06:04:00,43.3,33.1,29.96,WSW,238,0.0,6.0,67,0.00,,,0.00,VWS V14.01,2013-05-13 10:04:00,
2013-05-13 06:05:00,43.5,33.7,29.96,WSW,238,4.0,6.0,68,0.00,,,0.00,VWS V14.01,2013-05-13 10:05:00,
2013-05-13 06:08:00,43.5,33.7,29.96,SW,236,5.0,6.0,68,0.00,,,0.00,VWS V14.01,2013-05-13 10:08:00,
2013-05-13 06:10:00,43.5,33.7,29.96,SW,236,0.0,6.0,68,0.00,,,0.00,VWS V14.01,2013-05-13 10:10:00,
2013-05-13 06:11:00,43.5,33.7,29.96,SW,235,3.0,6.0,68,0.00,,,0.00,VWS V14.01,2013-05-13 10:11:00,
2013-05-13 06:12:00,43.6,33.8,29.96,SW,236,6.0,7.0,68,0.00,,,0.00,VWS V14.01,2013-05-13 10:12:00,
2013-05-13 06:13:00,43.6,33.8,29.96,SW,236,5.0,7.0,68,0.00,,,0.00,VWS V14.01,2013-05-13 10:13:00,
2013-05-13 06:14:00,43.6,33.8,29.96,SW,234,1.0,7.0,68,0.00,,,0.00,VWS V14.01,2013-05-13 10:14:00,
2013-05-13 06:16:00,43.6,33.8,29.96,SW,235,3.0,7.0,68,0.00,,,0.00,VWS V14.01,2013-05-13 10:16:00,
2013-05-13 06:19:00,43.6,34.1,29.96,SW,229,4.0,9.0,69,0.00,,,0.00,VWS V14.01,2013-05-13 10:19:00,
2013-05-13 06:21:00,43.8,34.3,29.96,SW,234,7.0,9.0,69,0.00,,,0.00,VWS V14.01,2013-05-13 10:21:00,
2013-05-13 06:22:00,43.8,34.3,29.96,SW,234,4.0,9.0,69,0.00,,,0.00,VWS V14.01,2013-05-13 10:22:00,
2013-05-13 06:24:00,43.8,34.3,29.96,SW,236,7.0,9.0,69,0.00,,,0.00,VWS V14.01,2013-05-13 10:24:00,
2013-05-13 06:26:00,43.8,34.3,29.96,West,264,1.0,9.0,69,0.00,,,0.00,VWS V14.01,2013-05-13 10:26:00,
2013-05-13 06:28:00,43.8,34.3,29.96,West,265,4.0,9.0,69,0.00,,,0.00,VWS V14.01,2013-05-13 10:28:00,
2013-05-13 06:29:00,43.8,34.3,29.96,West,259,1.0,9.0,69,0.00,,,0.00,VWS V14.01,2013-05-13 10:29:00,
2013-05-13 06:33:00,43.9,34.4,29.96,WSW,255,6.0,10.0,69,0.00,,,0.00,VWS V14.01,2013-05-13 10:33:00,
2013-05-13 06:34:00,43.9,34.4,29.97,West,261,3.0,10.0,69,0.00,,,0.00,VWS V14.01,2013-05-13 10:34:00,
2013-05-13 06:35:00,43.9,34.4,29.97,West,261,2.0,6.0,69,0.00,,,0.00,VWS V14.01,2013-05-13 10:35:00,
2013-05-13 06:36:00,43.9,34.4,29.97,West,261,4.0,6.0,69,0.00,,,0.00,VWS V14.01,2013-05-13 10:36:00,
2013-05-13 06:39:00,44.1,34.6,29.97,West,261,0.0,7.0,69,0.00,,,0.00,VWS V14.01,2013-05-13 10:39:00,
2013-05-13 06:41:00,44.1,34.6,29.97,West,261,5.0,7.0,69,0.00,,,0.00,VWS V14.01,2013-05-13 10:41:00,
2013-05-13 06:42:00,44.1,34.2,29.97,West,261,3.0,7.0,68,0.00,,,0.00,VWS V14.01,2013-05-13 10:42:00,
2013-05-13 06:43:00,44.2,34.3,29.97,West,261,0.0,7.0,68,0.00,,,0.00,VWS V14.01,2013-05-13 10:43:00,
2013-05-13 06:47:00,44.3,34.4,29.97,WSW,255,4.0,7.0,68,0.00,,,0.00,VWS V14.01,2013-05-13 10:47:00,
2013-05-13 06:48:00,44.3,34.4,29.97,WSW,257,5.0,8.0,68,0.00,,,0.00,VWS V14.01,2013-05-13 10:48:00,
2013-05-13 06:52:00,44.5,34.6,29.97,West,268,7.0,9.0,68,0.00,,,0.00,VWS V14.01,2013-05-13 10:52:00,
2013-05-13 06:53:00,44.6,34.7,29.97,WSW,254,2.0,9.0,68,0.00,,,0.00,VWS V14.01,2013-05-13 10:53:00,
2013-05-13 06:55:00,44.6,34.3,29.97,West,265,1.0,9.0,67,0.00,,,0.00,VWS V14.01,2013-05-13 10:55:00,
2013-05-13 06:58:00,44.8,34.5,29.97,West,265,2.0,9.0,67,0.00,,,0.00,VWS V14.01,2013-05-13 10:58:00,
2013-05-13 07:02:00,45.1,34.4,29.97,West,267,5.0,9.0,66,0.00,,,0.00,VWS V14.01,2013-05-13 11:02:00,
2013-05-13 07:03:00,45.1,34.4,29.97,West,267,3.0,9.0,66,0.00,,,0.00,VWS V14.01,2013-05-13 11:03:00,
2013-05-13 07:04:00,45.2,34.5,29.98,West,266,5.0,9.0,66,0.00,,,0.00,VWS V14.01,2013-05-13 11:04:00,
2013-05-13 07:07:00,45.5,34.4,29.98,West,270,3.0,8.0,65,0.00,,,0.00,VWS V14.01,2013-05-13 11:07:00,
2013-05-13 07:09:00,45.7,34.2,29.98,West,268,5.0,8.0,64,0.00,,,0.00,VWS V14.01,2013-05-13 11:09:00,
2013-05-13 07:10:00,45.7,34.2,29.98,West,268,3.0,8.0,64,0.00,,,0.00,VWS V14.01,2013-05-13 11:10:00,
2013-05-13 07:11:00,45.8,34.3,29.98,WNW,286,5.0,8.0,64,0.00,,,0.00,VWS V14.01,2013-05-13 11:11:00,
2013-05-13 07:16:00,46.2,33.9,29.98,West,281,6.0,11.0,62,0.00,,,0.00,VWS V14.01,2013-05-13 11:16:00,
2013-05-13 07:17:00,46.4,34.1,29.98,West,265,0.0,11.0,62,0.00,,,0.00,VWS V14.01,2013-05-13 11:17:00,
2013-05-13 07:19:00,46.7,34.0,29.98,NW,314,0.0,11.0,61,0.00,,,0.00,VWS V14.01,2013-05-13 11:19:00,
2013-05-13 07:22:00,47.0,33.8,29.98,West,275,8.0,13.0,60,0.00,,,0.00,VWS V14.01,2013-05-13 11:22:00,
2013-05-13 07:25:00,47.3,33.7,29.98,WNW,284,5.0,13.0,59,0.00,,,0.00,VWS V14.01,2013-05-13 11:25:00,
2013-05-13 07:27:00,47.6,34.0,29.98,West,271,7.0,13.0,59,0.00,,,0.00,VWS V14.01,2013-05-13 11:27:00,
2013-05-13 07:29:00,47.7,33.7,29.98,West,267,6.0,13.0,58,0.00,,,0.00,VWS V14.01,2013-05-13 11:29:00,
2013-05-13 07:32:00,48.0,33.9,29.98,WNW,285,6.0,13.0,58,0.00,,,0.00,VWS V14.01,2013-05-13 11:32:00,
2013-05-13 07:33:00,48.2,34.1,29.98,WNW,285,3.0,13.0,58,0.00,,,0.00,VWS V14.01,2013-05-13 11:33:00,
2013-05-13 07:34:00,48.3,34.2,29.98,West,275,7.0,13.0,58,0.00,,,0.00,VWS V14.01,2013-05-13 11:34:00,
2013-05-13 07:35:00,48.3,33.8,29.98,WNW,282,6.0,9.0,57,0.00,,,0.00,VWS V14.01,2013-05-13 11:35:00,
2013-05-13 07:37:00,48.6,33.6,29.98,West,264,4.0,9.0,56,0.00,,,0.00,VWS V14.01,2013-05-13 11:37:00,
2013-05-13 07:40:00,48.9,33.9,29.98,WNW,290,9.0,10.0,56,0.00,,,0.00,VWS V14.01,2013-05-13 11:40:00,
2013-05-13 07:41:00,48.9,33.5,29.98,West,263,8.0,10.0,55,0.00,,,0.00,VWS V14.01,2013-05-13 11:41:00,
2013-05-13 07:43:00,49.1,33.7,29.98,WSW,254,8.0,10.0,55,0.00,,,0.00,VWS V14.01,2013-05-13 11:43:00,
2013-05-13 07:44:00,49.4,33.9,29.98,WNW,295,4.0,10.0,55,0.00,,,0.00,VWS V14.01,2013-05-13 11:44:00,
2013-05-13 07:48:00,49.8,32.9,29.98,West,275,3.0,12.0,52,0.00,,,0.00,VWS V14.01,2013-05-13 11:48:00,
2013-05-13 07:50:00,49.9,33.0,29.99,WNW,286,4.0,12.0,52,0.00,,,0.00,VWS V14.01,2013-05-13 11:50:00,
2013-05-13 07:51:00,50.1,33.7,29.99,West,273,7.0,12.0,53,0.00,,,0.00,VWS V14.01,2013-05-13 11:51:00,
2013-05-13 07:54:00,50.4,33.9,29.99,West,279,0.0,12.0,53,0.00,,,0.00,VWS V14.01,2013-05-13 11:54:00,
2013-05-13 07:55:00,50.5,33.1,29.99,West,277,7.0,12.0,51,0.00,,,0.00,VWS V14.01,2013-05-13 11:55:00,
2013-05-13 07:58:00,50.8,33.3,29.99,West,276,5.0,12.0,51,0.00,,,0.00,VWS V14.01,2013-05-13 11:58:00,
2013-05-13 07:59:00,50.8,33.3,29.99,West,279,4.0,12.0,51,0.00,,,0.00,VWS V14.01,2013-05-13 11:59:00,
2013-05-13 08:02:00,51.1,34.1,29.99,West,259,5.0,12.0,52,0.00,,,0.00,VWS V14.01,2013-05-13 12:02:00,
2013-05-13 08:03:00,51.3,33.8,29.99,WNW,294,5.0,12.0,51,0.00,,,0.00,VWS V14.01,2013-05-13 12:03:00,
2013-05-13 08:04:00,51.3,33.3,29.99,WNW,288,0.0,12.0,50,0.00,,,0.00,VWS V14.01,2013-05-13 12:04:00,
2013-05-13 08:05:00,51.3,33.3,29.99,WNW,282,10.0,13.0,50,0.00,,,0.00,VWS V14.01,2013-05-13 12:05:00,
2013-05-13 08:07:00,51.4,33.4,29.99,West,277,6.0,13.0,50,0.00,,,0.00,VWS V14.01,2013-05-13 12:07:00,
2013-05-13 08:12:00,51.9,32.8,29.99,West,273,6.0,13.0,48,0.00,,,0.00,VWS V14.01,2013-05-13 12:12:00,
2013-05-13 08:14:00,52.0,32.9,29.99,WNW,286,8.0,13.0,48,0.00,,,0.00,VWS V14.01,2013-05-13 12:14:00,
2013-05-13 08:15:00,51.9,32.3,29.99,West,281,11.0,13.0,47,0.00,,,0.00,VWS V14.01,2013-05-13 12:15:00,
2013-05-13 08:17:00,51.9,32.8,29.99,WNW,289,7.0,13.0,48,0.00,,,0.00,VWS V14.01,2013-05-13 12:17:00,
2013-05-13 08:19:00,52.0,32.9,29.99,WNW,297,5.0,13.0,48,0.00,,,0.00,VWS V14.01,2013-05-13 12:19:00,
2013-05-13 08:22:00,52.5,33.4,29.99,West,270,6.0,13.0,48,0.00,,,0.00,VWS V14.01,2013-05-13 12:22:00,
2013-05-13 08:23:00,52.6,33.0,29.99,WNW,284,5.0,13.0,47,0.00,,,0.00,VWS V14.01,2013-05-13 12:23:00,
2013-05-13 08:27:00,52.9,32.7,29.99,West,281,4.0,13.0,46,0.00,,,0.00,VWS V14.01,2013-05-13 12:27:00,
2013-05-13 08:28:00,52.9,33.2,29.99,WNW,293,8.0,13.0,47,0.00,,,0.00,VWS V14.01,2013-05-13 12:28:00,
2013-05-13 08:29:00,52.9,32.7,29.99,WNW,290,4.0,13.0,46,0.00,,,0.00,VWS V14.01,2013-05-13 12:29:00,
2013-05-13 08:33:00,52.9,32.2,29.99,West,276,4.0,13.0,45,0.00,,,0.00,VWS V14.01,2013-05-13 12:33:00,
2013-05-13 08:34:00,53.1,32.3,29.99,West,278,4.0,4.0,45,0.00,,,0.00,VWS V14.01,2013-05-13 12:34:00,
2013-05-13 08:37:00,53.2,33.0,29.99,WNW,285,8.0,10.0,46,0.00,,,0.00,VWS V14.01,2013-05-13 12:37:00,
2013-05-13 08:38:00,53.5,32.7,29.99,WSW,257,5.0,10.0,45,0.00,,,0.00,VWS V14.01,2013-05-13 12:38:00,
2013-05-13 08:41:00,53.6,31.7,29.99,West,264,12.0,14.0,43,0.00,,,0.00,VWS V14.01,2013-05-13 12:41:00,
2013-05-13 08:42:00,53.6,32.2,29.99,West,267,13.0,16.0,44,0.00,,,0.00,VWS V14.01,2013-05-13 12:42:00,
2013-05-13 08:46:00,53.3,30.2,29.99,NW,317,10.0,16.0,41,0.00,,,0.00,VWS V14.01,2013-05-13 12:46:00,
2013-05-13 08:48:00,53.2,31.9,29.99,WSW,257,8.0,16.0,44,0.00,,,0.00,VWS V14.01,2013-05-13 12:48:00,
2013-05-13 08:50:00,53.5,31.6,29.99,WSW,256,8.0,16.0,43,0.00,,,0.00,VWS V14.01,2013-05-13 12:50:00,
2013-05-13 08:51:00,53.5,31.6,29.99,West,280,4.0,16.0,43,0.00,,,0.00,VWS V14.01,2013-05-13 12:51:00,
2013-05-13 08:52:00,53.8,32.4,29.99,West,273,0.0,16.0,44,0.00,,,0.00,VWS V14.01,2013-05-13 12:52:00,
2013-05-13 08:57:00,53.9,31.4,29.99,West,265,4.0,16.0,42,0.00,,,0.00,VWS V14.01,2013-05-13 12:57:00,
2013-05-13 08:58:00,53.9,32.5,29.99,West,279,9.0,16.0,44,0.00,,,0.00,VWS V14.01,2013-05-13 12:58:00,
2013-05-13 08:59:00,53.9,31.9,29.99,WSW,256,4.0,16.0,43,0.00,,,0.00,VWS V14.01,2013-05-13 12:59:00,
2013-05-13 09:00:00,54.1,31.5,29.99,West,259,6.0,16.0,42,0.00,,,0.00,VWS V14.01,2013-05-13 13:00:00,
2013-05-13 09:01:00,54.1,32.1,29.99,West,275,11.0,16.0,43,0.00,,,0.00,VWS V14.01,2013-05-13 13:01:00,
2013-05-13 09:04:00,54.4,32.4,29.99,WNW,298,0.0,2.0,43,0.00,,,0.00,VWS V14.01,2013-05-13 13:04:00,
2013-05-13 09:05:00,54.4,31.8,29.99,WSW,257,10.0,13.0,42,0.00,,,0.00,VWS V14.01,2013-05-13 13:05:00,
2013-05-13 09:06:00,54.5,31.9,29.99,West,262,8.0,13.0,42,0.00,,,0.00,VWS V14.01,2013-05-13 13:06:00,
2013-05-13 09:10:00,54.5,31.3,29.99,West,271,12.0,17.0,41,0.00,,,0.00,VWS V14.01,2013-05-13 13:10:00,
2013-05-13 09:11:00,54.5,30.7,29.99,WSW,257,11.0,17.0,40,0.00,,,0.00,VWS V14.01,2013-05-13 13:11:00,
2013-05-13 09:12:00,54.4,31.2,29.99,WSW,248,7.0,17.0,41,0.00,,,0.00,VWS V14.01,2013-05-13 13:12:00,
2013-05-13 09:13:00,54.4,31.8,29.99,West,267,6.0,17.0,42,0.00,,,0.00,VWS V14.01,2013-05-13 13:13:00,
2013-05-13 09:16:00,54.4,30.0,29.99,West,270,9.0,17.0,39,0.00,,,0.00,VWS V14.01,2013-05-13 13:16:00,
2013-05-13 09:19:00,54.1,30.3,29.99,West,275,8.0,17.0,40,0.00,,,0.00,VWS V14.01,2013-05-13 13:19:00,
2013-05-13 09:20:00,54.1,30.3,29.99,WNW,297,4.0,17.0,40,0.00,,,0.00,VWS V14.01,2013-05-13 13:20:00,
2013-05-13 09:21:00,54.1,31.5,29.99,West,267,4.0,17.0,42,0.00,,,0.00,VWS V14.01,2013-05-13 13:21:00,
2013-05-13 09:25:00,54.2,29.8,29.99,NW,306,9.0,18.0,39,0.00,,,0.00,VWS V14.01,2013-05-13 13:25:00,
2013-05-13 09:26:00,54.2,31.0,29.99,SW,233,8.0,18.0,41,0.00,,,0.00,VWS V14.01,2013-05-13 13:26:00,
2013-05-13 09:29:00,54.7,31.5,29.99,WNW,294,14.0,18.0,41,0.00,,,0.00,VWS V14.01,2013-05-13 13:29:00,
2013-05-13 09:33:00,54.8,31.6,29.99,West,266,9.0,18.0,41,0.00,,,0.00,VWS V14.01,2013-05-13 13:33:00,
2013-05-13 09:34:00,55.0,32.9,29.99,West,265,11.0,18.0,43,0.00,,,0.00,VWS V14.01,2013-05-13 13:34:00,
2013-05-13 09:36:00,55.1,30.6,29.99,West,273,4.0,13.0,39,0.00,,,0.00,VWS V14.01,2013-05-13 13:36:00,
2013-05-13 09:39:00,55.4,30.9,29.99,West,271,11.0,13.0,39,0.00,,,0.00,VWS V14.01,2013-05-13 13:39:00,
2013-05-13 09:40:00,55.4,30.9,29.99,WNW,289,15.0,15.0,39,0.00,,,0.00,VWS V14.01,2013-05-13 13:40:00,
2013-05-13 09:42:00,55.1,30.6,29.99,West,261,11.0,17.0,39,0.00,,,0.00,VWS V14.01,2013-05-13 13:42:00,
2013-05-13 09:44:00,54.8,30.3,29.99,WNW,294,9.0,20.0,39,0.00,,,0.00,VWS V14.01,2013-05-13 13:44:00,
2013-05-13 09:45:00,54.8,30.3,29.99,NW,326,6.0,20.0,39,0.00,,,0.00,VWS V14.01,2013-05-13 13:45:00,
2013-05-13 09:47:00,55.1,31.2,29.99,WNW,300,1.0,20.0,40,0.00,,,0.00,VWS V14.01,2013-05-13 13:47:00,
2013-05-13 09:49:00,55.6,31.1,29.99,NW,312,7.0,20.0,39,0.00,,,0.00,VWS V14.01,2013-05-13 13:49:00,
2013-05-13 09:50:00,55.6,30.4,29.99,NW,316,13.0,20.0,38,0.00,,,0.00,VWS V14.01,2013-05-13 13:50:00,
2013-05-13 09:51:00,55.6,30.4,29.99,West,278,7.0,20.0,38,0.00,,,0.00,VWS V14.01,2013-05-13 13:51:00,
2013-05-13 09:54:00,55.3,29.5,29.99,West,271,12.0,21.0,37,0.00,,,0.00,VWS V14.01,2013-05-13 13:54:00,
2013-05-13 09:55:00,55.1,30.0,29.99,WSW,238,10.0,21.0,38,0.00,,,0.00,VWS V14.01,2013-05-13 13:55:00,
2013-05-13 09:56:00,55.0,29.9,29.99,West,272,15.0,21.0,38,0.00,,,0.00,VWS V14.01,2013-05-13 13:56:00,
2013-05-13 09:57:00,55.0,29.2,29.99,West,270,6.0,21.0,37,0.00,,,0.00,VWS V14.01,2013-05-13 13:57:00,
2013-05-13 10:00:00,55.4,30.9,29.99,West,278,12.0,21.0,39,0.00,,,0.00,VWS V14.01,2013-05-13 14:00:00,
2013-05-13 10:02:00,55.4,29.6,29.99,West,270,6.0,21.0,37,0.00,,,0.00,VWS V14.01,2013-05-13 14:02:00,
2013-05-13 10:05:00,55.7,29.2,29.98,West,261,6.0,16.0,36,0.00,,,0.00,VWS V14.01,2013-05-13 14:05:00,
2013-05-13 10:06:00,55.7,30.5,29.98,West,274,13.0,17.0,38,0.00,,,0.00,VWS V14.01,2013-05-13 14:06:00,
2013-05-13 10:07:00,55.9,30.0,29.98,SW,236,10.0,17.0,37,0.00,,,0.00,VWS V14.01,2013-05-13 14:07:00,
2013-05-13 10:10:00,55.7,28.5,29.98,WNW,302,13.0,22.0,35,0.00,,,0.00,VWS V14.01,2013-05-13 14:10:00,
2013-05-13 10:12:00,55.3,28.1,29.98,West,259,6.0,22.0,35,0.00,,,0.00,VWS V14.01,2013-05-13 14:12:00,
2013-05-13 10:13:00,55.4,30.9,29.98,West,259,7.0,22.0,39,0.00,,,0.00,VWS V14.01,2013-05-13 14:13:00,
2013-05-13 10:18:00,55.6,29.1,29.98,West,264,13.0,22.0,36,0.00,,,0.00,VWS V14.01,2013-05-13 14:18:00,
2013-05-13 10:19:00,55.6,28.4,29.98,WSW,241,12.0,22.0,35,0.00,,,0.00,VWS V14.01,2013-05-13 14:19:00,
2013-05-13 10:20:00,55.6,29.1,29.98,West,277,17.0,22.0,36,0.00,,,0.00,VWS V14.01,2013-05-13 14:20:00,
2013-05-13 10:22:00,55.1,28.0,29.98,West,269,10.0,22.0,35,0.00,,,0.00,VWS V14.01,2013-05-13 14:22:00,
2013-05-13 10:24:00,54.8,27.7,29.98,WNW,289,6.0,22.0,35,0.00,,,0.00,VWS V14.01,2013-05-13 14:24:00,
2013-05-13 10:25:00,54.8,29.0,29.98,WNW,294,7.0,22.0,37,0.00,,,0.00,VWS V14.01,2013-05-13 14:25:00,
2013-05-13 10:26:00,55.0,29.9,29.98,West,265,8.0,22.0,38,0.00,,,0.00,VWS V14.01,2013-05-13 14:26:00,
2013-05-13 10:27:00,55.1,29.3,29.98,WNW,292,5.0,22.0,37,0.00,,,0.00,VWS V14.01,2013-05-13 14:27:00,
2013-05-13 10:29:00,55.3,28.1,29.98,West,275,7.0,22.0,35,0.00,,,0.00,VWS V14.01,2013-05-13 14:29:00,
2013-05-13 10:30:00,55.3,28.8,29.98,WNW,296,14.0,22.0,36,0.00,,,0.00,VWS V14.01,2013-05-13 14:30:00,
2013-05-13 10:33:00,55.3,30.1,29.99,West,279,9.0,22.0,38,0.00,,,0.00,VWS V14.01,2013-05-13 14:33:00,
2013-05-13 10:34:00,55.4,29.6,29.99,West,275,12.0,12.0,37,0.00,,,0.00,VWS V14.01,2013-05-13 14:34:00,
2013-05-13 10:37:00,55.3,29.5,29.99,West,276,5.0,16.0,37,0.00,,,0.00,VWS V14.01,2013-05-13 14:37:00,
2013-05-13 10:39:00,55.6,31.1,29.99,West,269,14.0,16.0,39,0.00,,,0.00,VWS V14.01,2013-05-13 14:39:00,
2013-05-13 10:40:00,55.6,31.1,29.99,West,266,13.0,17.0,39,0.00,,,0.00,VWS V14.01,2013-05-13 14:40:00,
2013-05-13 10:43:00,55.9,28.7,29.99,WNW,285,5.0,18.0,35,0.00,,,0.00,VWS V14.01,2013-05-13 14:43:00,
2013-05-13 10:44:00,55.7,28.5,29.99,West,272,0.0,18.0,35,0.00,,,0.00,VWS V14.01,2013-05-13 14:44:00,
2013-05-13 10:46:00,55.4,29.6,29.99,WNW,298,13.0,18.0,37,0.00,,,0.00,VWS V14.01,2013-05-13 14:46:00,
2013-05-13 10:48:00,55.4,30.2,29.99,SW,232,7.0,18.0,38,0.00,,,0.00,VWS V14.01,2013-05-13 14:48:00,
2013-05-13 10:51:00,55.7,30.5,29.99,West,279,11.0,20.0,38,0.00,,,0.00,VWS V14.01,2013-05-13 14:51:00,
2013-05-13 10:53:00,55.9,28.7,29.99,WNW,293,12.0,20.0,35,0.00,,,0.00,VWS V14.01,2013-05-13 14:53:00,
2013-05-13 10:54:00,55.9,28.7,29.99,WNW,302,9.0,20.0,35,0.00,,,0.00,VWS V14.01,2013-05-13 14:54:00,
2013-05-13 10:58:00,55.9,28.7,29.99,WSW,249,8.0,20.0,35,0.00,,,0.00,VWS V14.01,2013-05-13 14:58:00,
2013-05-13 11:00:00,55.9,30.7,29.99,WSW,240,6.0,20.0,38,0.00,,,0.00,VWS V14.01,2013-05-13 15:00:00,
2013-05-13 11:04:00,56.5,29.9,29.98,SW,225,10.0,20.0,36,0.00,,,0.00,VWS V14.01,2013-05-13 15:04:00,
2013-05-13 11:05:00,56.7,30.1,29.98,West,277,11.0,12.0,36,0.00,,,0.00,VWS V14.01,2013-05-13 15:05:00,
2013-05-13 11:06:00,56.7,30.1,29.98,West,268,12.0,14.0,36,0.00,,,0.00,VWS V14.01,2013-05-13 15:06:00,
2013-05-13 11:09:00,56.9,29.5,29.98,WNW,296,7.0,14.0,35,0.00,,,0.00,VWS V14.01,2013-05-13 15:09:00,
2013-05-13 11:11:00,57.2,31.8,29.98,WSW,248,8.0,14.0,38,0.00,,,0.00,VWS V14.01,2013-05-13 15:11:00,
2013-05-13 11:12:00,57.5,30.1,29.98,WNW,283,7.0,17.0,35,0.00,,,0.00,VWS V14.01,2013-05-13 15:12:00,
2013-05-13 11:13:00,57.5,29.4,29.98,WNW,287,12.0,17.0,34,0.00,,,0.00,VWS V14.01,2013-05-13 15:13:00,
2013-05-13 11:16:00,56.9,29.5,29.98,SW,226,10.0,22.0,35,0.00,,,0.00,VWS V14.01,2013-05-13 15:16:00,
2013-05-13 11:17:00,56.9,28.8,29.98,West,270,13.0,22.0,34,0.00,,,0.00,VWS V14.01,2013-05-13 15:17:00,
2013-05-13 11:19:00,56.9,29.5,29.98,NW,304,10.0,22.0,35,0.00,,,0.00,VWS V14.01,2013-05-13 15:19:00,
2013-05-13 11:21:00,57.0,28.2,29.98,WSW,254,6.0,22.0,33,0.00,,,0.00,VWS V14.01,2013-05-13 15:21:00,
2013-05-13 11:22:00,57.2,29.8,29.98,West,277,13.0,22.0,35,0.00,,,0.00,VWS V14.01,2013-05-13 15:22:00,
2013-05-13 11:26:00,57.5,30.1,29.98,West,281,11.0,22.0,35,0.00,,,0.00,VWS V14.01,2013-05-13 15:26:00,
2013-05-13 11:27:00,57.3,27.7,29.98,WNW,290,16.0,22.0,32,0.00,,,0.00,VWS V14.01,2013-05-13 15:27:00,
2013-05-13 11:28:00,57.3,27.7,29.98,West,267,13.0,22.0,32,0.00,,,0.00,VWS V14.01,2013-05-13 15:28:00,
2013-05-13 11:29:00,57.0,27.5,29.98,WNW,300,10.0,22.0,32,0.00,,,0.00,VWS V14.01,2013-05-13 15:29:00,
2013-05-13 11:31:00,56.9,28.1,29.98,WSW,238,5.0,22.0,33,0.00,,,0.00,VWS V14.01,2013-05-13 15:31:00,
2013-05-13 11:32:00,56.7,27.9,29.98,WNW,284,13.0,22.0,33,0.00,,,0.00,VWS V14.01,2013-05-13 15:32:00,
2013-05-13 11:36:00,57.0,28.2,29.98,NW,308,17.0,19.0,33,0.00,,,0.00,VWS V14.01,2013-05-13 15:36:00,
2013-05-13 11:37:00,57.0,27.5,29.98,WNW,295,11.0,19.0,32,0.00,,,0.00,VWS V14.01,2013-05-13 15:37:00,
2013-05-13 11:38:00,57.0,28.2,29.98,West,264,5.0,19.0,33,0.00,,,0.00,VWS V14.01,2013-05-13 15:38:00,
2013-05-13 11:39:00,57.0,29.6,29.98,West,272,18.0,19.0,35,0.00,,,0.00,VWS V14.01,2013-05-13 15:39:00,
2013-05-13 11:40:00,57.2,28.4,29.98,West,269,7.0,19.0,33,0.00,,,0.00,VWS V14.01,2013-05-13 15:40:00,
2013-05-13 11:42:00,57.2,29.8,29.98,WSW,242,5.0,19.0,35,0.00,,,0.00,VWS V14.01,2013-05-13 15:42:00,
2013-05-13 11:44:00,57.6,30.9,29.98,West,273,18.0,21.0,36,0.00,,,0.00,VWS V14.01,2013-05-13 15:44:00,
2013-05-13 11:45:00,57.8,30.4,29.98,NW,306,21.0,24.0,35,0.00,,,0.00,VWS V14.01,2013-05-13 15:45:00,
2013-05-13 11:47:00,57.6,30.2,29.98,WSW,250,5.0,24.0,35,0.00,,,0.00,VWS V14.01,2013-05-13 15:47:00,
2013-05-13 11:49:00,57.3,29.2,29.98,West,260,9.0,24.0,34,0.00,,,0.00,VWS V14.01,2013-05-13 15:49:00,
2013-05-13 11:50:00,57.0,28.9,29.98,WNW,302,9.0,24.0,34,0.00,,,0.00,VWS V14.01,2013-05-13 15:50:00,
2013-05-13 11:52:00,57.0,32.3,29.98,WNW,288,13.0,24.0,39,0.00,,,0.00,VWS V14.01,2013-05-13 15:52:00,
2013-05-13 11:55:00,56.6,29.3,29.98,NW,310,11.0,24.0,35,0.00,,,0.00,VWS V14.01,2013-05-13 15:55:00,
2013-05-13 11:56:00,56.6,30.6,29.98,NW,304,13.0,24.0,37,0.00,,,0.00,VWS V14.01,2013-05-13 15:56:00,
2013-05-13 11:57:00,56.6,30.0,29.98,WNW,288,6.0,24.0,36,0.00,,,0.00,VWS V14.01,2013-05-13 15:57:00,
2013-05-13 11:59:00,56.6,28.6,29.98,WSW,241,11.0,24.0,34,0.00,,,0.00,VWS V14.01,2013-05-13 15:59:00,
2013-05-13 12:01:00,56.5,29.9,29.98,WSW,246,4.0,24.0,36,0.00,,,0.00,VWS V14.01,2013-05-13 16:01:00,
2013-05-13 12:03:00,56.6,30.0,29.98,WNW,284,10.0,24.0,36,0.00,,,0.00,VWS V14.01,2013-05-13 16:03:00,
2013-05-13 12:04:00,56.6,28.6,29.98,West,273,10.0,24.0,34,0.00,,,0.00,VWS V14.01,2013-05-13 16:04:00,
2013-05-13 12:06:00,56.9,30.2,29.98,WNW,294,9.0,17.0,36,0.00,,,0.00,VWS V14.01,2013-05-13 16:06:00,
2013-05-13 12:08:00,56.7,29.4,29.98,WSW,248,17.0,22.0,35,0.00,,,0.00,VWS V14.01,2013-05-13 16:08:00,
2013-05-13 12:10:00,56.7,30.1,29.98,NW,306,0.0,22.0,36,0.00,,,0.00,VWS V14.01,2013-05-13 16:10:00,
2013-05-13 12:12:00,56.7,30.7,29.98,West,259,3.0,22.0,37,0.00,,,0.00,VWS V14.01,2013-05-13 16:12:00,
2013-05-13 12:15:00,57.3,31.3,29.98,WSW,256,8.0,22.0,37,0.00,,,0.00,VWS V14.01,2013-05-13 16:15:00,
2013-05-13 12:16:00,57.5,30.8,29.98,West,272,12.0,22.0,36,0.00,,,0.00,VWS V14.01,2013-05-13 16:16:00,
2013-05-13 12:17:00,57.5,30.8,29.98,WNW,303,17.0,22.0,36,0.00,,,0.00,VWS V14.01,2013-05-13 16:17:00,
2013-05-13 12:20:00,57.6,29.5,29.98,NW,317,7.0,22.0,34,0.00,,,0.00,VWS V14.01,2013-05-13 16:20:00,
2013-05-13 12:21:00,57.6,30.2,29.98,WNW,289,6.0,22.0,35,0.00,,,0.00,VWS V14.01,2013-05-13 16:21:00,
2013-05-13 12:22:00,57.8,31.0,29.98,WSW,252,17.0,22.0,36,0.00,,,0.00,VWS V14.01,2013-05-13 16:22:00,
2013-05-13 12:24:00,57.8,29.6,29.98,West,259,15.0,22.0,34,0.00,,,0.00,VWS V14.01,2013-05-13 16:24:00,
2013-05-13 12:26:00,58.0,27.6,29.98,SW,229,9.0,22.0,31,0.00,,,0.00,VWS V14.01,2013-05-13 16:26:00,
2013-05-13 12:27:00,58.3,30.1,29.98,WNW,283,11.0,22.0,34,0.00,,,0.00,VWS V14.01,2013-05-13 16:27:00,
2013-05-13 12:29:00,58.4,27.9,29.98,West,269,7.0,22.0,31,0.00,,,0.00,VWS V14.01,2013-05-13 16:29:00,
2013-05-13 12:32:00,57.3,28.5,29.98,WNW,284,14.0,22.0,33,0.00,,,0.00,VWS V14.01,2013-05-13 16:32:00,
2013-05-13 12:33:00,57.0,28.9,29.98,West,273,8.0,22.0,34,0.00,,,0.00,VWS V14.01,2013-05-13 16:33:00,
2013-05-13 12:34:00,56.9,28.8,29.98,NW,309,12.0,22.0,34,0.00,,,0.00,VWS V14.01,2013-05-13 16:34:00,
2013-05-13 12:36:00,56.5,28.5,29.98,NW,325,16.0,19.0,34,0.00,,,0.00,VWS V14.01,2013-05-13 16:36:00,
2013-05-13 12:37:00,56.3,28.3,29.98,NW,315,16.0,19.0,34,0.00,,,0.00,VWS V14.01,2013-05-13 16:37:00,
2013-05-13 12:39:00,56.2,28.9,29.98,West,275,12.0,19.0,35,0.00,,,0.00,VWS V14.01,2013-05-13 16:39:00,
2013-05-13 12:40:00,56.2,28.2,29.98,West,275,7.0,19.0,34,0.00,,,0.00,VWS V14.01,2013-05-13 16:40:00,
2013-05-13 12:42:00,56.6,29.3,29.98,West,278,5.0,19.0,35,0.00,,,0.00,VWS V14.01,2013-05-13 16:42:00,
2013-05-13 12:43:00,56.7,28.7,29.98,West,271,10.0,19.0,34,0.00,,,0.00,VWS V14.01,2013-05-13 16:43:00,
2013-05-13 12:45:00,57.3,29.2,29.98,West,266,15.0,19.0,34,0.00,,,0.00,VWS V14.01,2013-05-13 16:45:00,
2013-05-13 12:46:00,57.6,28.7,29.98,WNW,296,9.0,19.0,33,0.00,,,0.00,VWS V14.01,2013-05-13 16:46:00,
2013-05-13 12:51:00,58.0,30.5,29.97,WNW,295,9.0,19.0,35,0.00,,,0.00,VWS V14.01,2013-05-13 16:51:00,
2013-05-13 12:52:00,58.1,29.9,29.97,WNW,282,19.0,24.0,34,0.00,,,0.00,VWS V14.01,2013-05-13 16:52:00,
2013-05-13 12:54:00,58.0,28.3,29.97,NW,315,12.0,24.0,32,0.00,,,0.00,VWS V14.01,2013-05-13 16:54:00,
2013-05-13 12:57:00,57.6,29.5,29.97,WNW,292,12.0,24.0,34,0.00,,,0.00,VWS V14.01,2013-05-13 16:57:00,
2013-05-13 12:59:00,57.5,29.4,29.97,WSW,241,12.0,24.0,34,0.00,,,0.00,VWS V14.01,2013-05-13 16:59:00,
2013-05-13 13:00:00,57.5,30.1,29.97,West,261,5.0,24.0,35,0.00,,,0.00,VWS V14.01,2013-05-13 17:00:00,
2013-05-13 13:02:00,57.3,28.5,29.97,WNW,288,10.0,24.0,33,0.00,,,0.00,VWS V14.01,2013-05-13 17:02:00,
2013-05-13 13:05:00,57.0,28.2,29.97,WNW,303,7.0,18.0,33,0.00,,,0.00,VWS V14.01,2013-05-13 17:05:00,
2013-05-13 13:06:00,56.9,28.8,29.97,WNW,286,14.0,18.0,34,0.00,,,0.00,VWS V14.01,2013-05-13 17:06:00,
2013-05-13 13:10:00,56.7,28.7,29.97,SW,231,11.0,19.0,34,0.00,,,0.00,VWS V14.01,2013-05-13 17:10:00,
2013-05-13 13:14:00,57.5,28.6,29.97,SW,215,8.0,21.0,33,0.00,,,0.00,VWS V14.01,2013-05-13 17:14:00,
2013-05-13 13:15:00,58.0,30.5,29.97,WSW,254,15.0,21.0,35,0.00,,,0.00,VWS V14.01,2013-05-13 17:15:00,
2013-05-13 13:18:00,58.4,28.7,29.97,WNW,292,6.0,21.0,32,0.00,,,0.00,VWS V14.01,2013-05-13 17:18:00,
2013-05-13 13:20:00,58.6,31.0,29.96,West,279,9.0,21.0,35,0.00,,,0.00,VWS V14.01,2013-05-13 17:20:00,
2013-05-13 13:21:00,58.6,29.6,29.96,West,264,14.0,21.0,33,0.00,,,0.00,VWS V14.01,2013-05-13 17:21:00,
2013-05-13 13:24:00,59.0,28.4,29.96,NW,315,7.0,21.0,31,0.00,,,0.00,VWS V14.01,2013-05-13 17:24:00,
2013-05-13 13:25:00,58.9,28.3,29.96,WNW,289,13.0,22.0,31,0.00,,,0.00,VWS V14.01,2013-05-13 17:25:00,
2013-05-13 13:27:00,58.9,30.6,29.96,WSW,241,18.0,22.0,34,0.00,,,0.00,VWS V14.01,2013-05-13 17:27:00,
2013-05-13 13:28:00,59.0,30.0,29.96,West,280,10.0,22.0,33,0.00,,,0.00,VWS V14.01,2013-05-13 17:28:00,
2013-05-13 13:30:00,59.3,28.7,29.96,SW,235,13.0,22.0,31,0.00,,,0.00,VWS V14.01,2013-05-13 17:30:00,
2013-05-13 13:33:00,59.3,27.9,29.96,NW,317,10.0,22.0,30,0.00,,,0.00,VWS V14.01,2013-05-13 17:33:00,
2013-05-13 13:34:00,59.2,27.8,29.96,West,270,5.0,22.0,30,0.00,,,0.00,VWS V14.01,2013-05-13 17:34:00,
2013-05-13 13:35:00,59.2,29.4,29.96,West,269,13.0,17.0,32,0.00,,,0.00,VWS V14.01,2013-05-13 17:35:00,
2013-05-13 13:36:00,59.2,28.6,29.96,WNW,296,5.0,17.0,31,0.00,,,0.00,VWS V14.01,2013-05-13 17:36:00,
2013-05-13 13:37:00,59.2,27.8,29.96,West,270,2.0,17.0,30,0.00,,,0.00,VWS V14.01,2013-05-13 17:37:00,
2013-05-13 13:39:00,58.9,28.3,29.96,West,269,11.0,17.0,31,0.00,,,0.00,VWS V14.01,2013-05-13 17:39:00,
2013-05-13 13:41:00,58.3,27.8,29.96,West,264,12.0,21.0,31,0.00,,,0.00,VWS V14.01,2013-05-13 17:41:00,
2013-05-13 13:42:00,58.1,28.4,29.96,WSW,252,12.0,21.0,32,0.00,,,0.00,VWS V14.01,2013-05-13 17:42:00,
2013-05-13 13:43:00,57.8,28.2,29.96,NW,314,15.0,21.0,32,0.00,,,0.00,VWS V14.01,2013-05-13 17:43:00,
2013-05-13 13:46:00,57.5,29.4,29.96,WNW,294,6.0,21.0,34,0.00,,,0.00,VWS V14.01,2013-05-13 17:46:00,
2013-05-13 13:47:00,57.3,28.5,29.96,WNW,300,12.0,21.0,33,0.00,,,0.00,VWS V14.01,2013-05-13 17:47:00,
2013-05-13 13:50:00,56.9,28.1,29.96,WNW,290,17.0,21.0,33,0.00,,,0.00,VWS V14.01,2013-05-13 17:50:00,
2013-05-13 13:51:00,56.6,27.1,29.96,NNW,337,22.0,22.0,32,0.00,,,0.00,VWS V14.01,2013-05-13 17:51:00,
2013-05-13 13:54:00,56.2,27.5,29.96,West,267,8.0,22.0,33,0.00,,,0.00,VWS V14.01,2013-05-13 17:54:00,
2013-05-13 13:56:00,56.2,28.9,29.96,WNW,285,16.0,22.0,35,0.00,,,0.00,VWS V14.01,2013-05-13 17:56:00,
2013-05-13 13:57:00,56.2,28.2,29.96,SW,228,9.0,22.0,34,0.00,,,0.00,VWS V14.01,2013-05-13 17:57:00,
2013-05-13 13:59:00,56.0,27.3,29.96,West,267,8.0,22.0,33,0.00,,,0.00,VWS V14.01,2013-05-13 17:59:00,
2013-05-13 14:00:00,56.0,28.0,29.96,West,266,11.0,22.0,34,0.00,,,0.00,VWS V14.01,2013-05-13 18:00:00,
2013-05-13 14:01:00,56.0,27.3,29.96,NW,304,12.0,22.0,33,0.00,,,0.00,VWS V14.01,2013-05-13 18:01:00,
2013-05-13 14:04:00,55.9,27.2,29.96,West,272,11.0,22.0,33,0.00,,,0.00,VWS V14.01,2013-05-13 18:04:00,
2013-05-13 14:05:00,55.9,28.7,29.96,NW,306,13.0,13.0,35,0.00,,,0.00,VWS V14.01,2013-05-13 18:05:00,
2013-05-13 14:06:00,56.0,28.8,29.96,WNW,302,13.0,15.0,35,0.00,,,0.00,VWS V14.01,2013-05-13 18:06:00,
2013-05-13 14:09:00,56.2,27.5,29.96,WNW,296,9.0,15.0,33,0.00,,,0.00,VWS V14.01,2013-05-13 18:09:00,
2013-05-13 14:10:00,56.3,29.0,29.96,NW,305,5.0,15.0,35,0.00,,,0.00,VWS V14.01,2013-05-13 18:10:00,
2013-05-13 14:14:00,57.3,27.7,29.96,West,281,2.0,15.0,32,0.00,,,0.00,VWS V14.01,2013-05-13 18:14:00,
2013-05-13 14:16:00,57.6,28.7,29.96,West,269,8.0,19.0,33,0.00,,,0.00,VWS V14.01,2013-05-13 18:16:00,
2013-05-13 14:18:00,57.8,27.4,29.96,WNW,300,4.0,19.0,31,0.00,,,0.00,VWS V14.01,2013-05-13 18:18:00,
2013-05-13 14:19:00,57.6,27.2,29.96,West,273,4.0,19.0,31,0.00,,,0.00,VWS V14.01,2013-05-13 18:19:00,
2013-05-13 14:21:00,57.5,27.9,29.96,WNW,288,11.0,19.0,32,0.00,,,0.00,VWS V14.01,2013-05-13 18:21:00,
2013-05-13 14:25:00,57.2,27.6,29.96,WNW,300,7.0,19.0,32,0.00,,,0.00,VWS V14.01,2013-05-13 18:25:00,
2013-05-13 14:26:00,57.2,27.6,29.96,WNW,292,5.0,19.0,32,0.00,,,0.00,VWS V14.01,2013-05-13 18:26:00,
2013-05-13 14:28:00,57.5,30.1,29.96,West,266,7.0,19.0,35,0.00,,,0.00,VWS V14.01,2013-05-13 18:28:00,
2013-05-13 14:30:00,58.0,29.8,29.96,WNW,300,10.0,19.0,34,0.00,,,0.00,VWS V14.01,2013-05-13 18:30:00,
2013-05-13 14:31:00,58.1,29.2,29.96,WNW,286,8.0,19.0,33,0.00,,,0.00,VWS V14.01,2013-05-13 18:31:00,
2013-05-13 14:33:00,58.1,27.6,29.96,West,269,10.0,19.0,31,0.00,,,0.00,VWS V14.01,2013-05-13 18:33:00,
2013-05-13 14:35:00,58.0,28.3,29.96,West,279,18.0,18.0,32,0.00,,,0.00,VWS V14.01,2013-05-13 18:35:00,
2013-05-13 14:36:00,57.8,27.4,29.96,West,259,15.0,20.0,31,0.00,,,0.00,VWS V14.01,2013-05-13 18:36:00,
2013-05-13 14:37:00,57.6,27.2,29.96,WNW,296,13.0,20.0,31,0.00,,,0.00,VWS V14.01,2013-05-13 18:37:00,
2013-05-13 14:38:00,57.5,27.1,29.96,West,267,7.0,20.0,31,0.00,,,0.00,VWS V14.01,2013-05-13 18:38:00,
2013-05-13 14:40:00,57.0,25.9,29.96,WNW,289,10.0,20.0,30,0.00,,,0.00,VWS V14.01,2013-05-13 18:40:00,
2013-05-13 14:42:00,56.7,26.4,29.96,NW,306,4.0,20.0,31,0.00,,,0.00,VWS V14.01,2013-05-13 18:42:00,
2013-05-13 14:45:00,56.5,27.0,29.96,WSW,255,6.0,20.0,32,0.00,,,0.00,VWS V14.01,2013-05-13 18:45:00,
2013-05-13 14:46:00,56.5,27.8,29.96,WNW,286,6.0,20.0,33,0.00,,,0.00,VWS V14.01,2013-05-13 18:46:00,
2013-05-13 14:47:00,56.5,27.0,29.96,West,263,6.0,20.0,32,0.00,,,0.00,VWS V14.01,2013-05-13 18:47:00,
2013-05-13 14:50:00,56.5,27.0,29.96,West,271,6.0,20.0,32,0.00,,,0.00,VWS V14.01,2013-05-13 18:50:00,
2013-05-13 14:51:00,56.5,27.0,29.96,WNW,282,7.0,20.0,32,0.00,,,0.00,VWS V14.01,2013-05-13 18:51:00,
2013-05-13 14:53:00,56.5,26.2,29.96,NW,323,11.0,20.0,31,0.00,,,0.00,VWS V14.01,2013-05-13 18:53:00,
2013-05-13 14:55:00,56.6,27.1,29.96,NW,311,14.0,20.0,32,0.00,,,0.00,VWS V14.01,2013-05-13 18:55:00,
2013-05-13 14:56:00,56.6,27.1,29.96,WNW,300,14.0,20.0,32,0.00,,,0.00,VWS V14.01,2013-05-13 18:56:00,
2013-05-13 14:59:00,56.9,28.1,29.96,WSW,257,3.0,20.0,33,0.00,,,0.00,VWS V14.01,2013-05-13 18:59:00,
2013-05-13 15:00:00,57.2,28.4,29.96,NW,324,11.0,20.0,33,0.00,,,0.00,VWS V14.01,2013-05-13 19:00:00,
2013-05-13 15:02:00,57.6,28.0,29.96,West,266,4.0,20.0,32,0.00,,,0.00,VWS V14.01,2013-05-13 19:02:00,
2013-05-13 15:04:00,58.1,29.9,29.95,West,272,6.0,8.0,34,0.00,,,0.00,VWS V14.01,2013-05-13 19:04:00,
2013-05-13 15:06:00,58.4,27.1,29.95,West,272,9.0,20.0,30,0.00,,,0.00,VWS V14.01,2013-05-13 19:06:00,
2013-05-13 15:07:00,58.3,26.2,29.95,West,270,8.0,20.0,29,0.00,,,0.00,VWS V14.01,2013-05-13 19:07:00,
2013-05-13 15:09:00,58.0,26.8,29.95,NW,312,12.0,20.0,30,0.00,,,0.00,VWS V14.01,2013-05-13 19:09:00,
2013-05-13 15:10:00,57.8,26.6,29.95,West,273,4.0,20.0,30,0.00,,,0.00,VWS V14.01,2013-05-13 19:10:00,
2013-05-13 15:12:00,57.5,26.3,29.95,WNW,282,17.0,20.0,30,0.00,,,0.00,VWS V14.01,2013-05-13 19:12:00,
2013-05-13 15:15:00,57.0,26.7,29.95,WNW,287,9.0,20.0,31,0.00,,,0.00,VWS V14.01,2013-05-13 19:15:00,
2013-05-13 15:17:00,56.6,25.5,29.95,WNW,286,8.0,20.0,30,0.00,,,0.00,VWS V14.01,2013-05-13 19:17:00,
2013-05-13 15:19:00,56.5,26.2,29.95,NW,308,9.0,20.0,31,0.00,,,0.00,VWS V14.01,2013-05-13 19:19:00,
2013-05-13 15:20:00,56.5,26.2,29.95,WNW,287,6.0,20.0,31,0.00,,,0.00,VWS V14.01,2013-05-13 19:20:00,
2013-05-13 15:22:00,56.3,26.8,29.95,NNW,333,14.0,20.0,32,0.00,,,0.00,VWS V14.01,2013-05-13 19:22:00,
2013-05-13 15:24:00,56.3,26.1,29.95,WNW,299,17.0,20.0,31,0.00,,,0.00,VWS V14.01,2013-05-13 19:24:00,
2013-05-13 15:25:00,56.2,26.0,29.95,West,265,8.0,20.0,31,0.00,,,0.00,VWS V14.01,2013-05-13 19:25:00,
2013-05-13 15:27:00,56.3,27.6,29.95,West,261,12.0,20.0,33,0.00,,,0.00,VWS V14.01,2013-05-13 19:27:00,
2013-05-13 15:29:00,56.3,27.6,29.95,West,259,0.0,20.0,33,0.00,,,0.00,VWS V14.01,2013-05-13 19:29:00,
2013-05-13 15:31:00,56.3,26.1,29.95,NW,309,19.0,20.0,31,0.00,,,0.00,VWS V14.01,2013-05-13 19:31:00,
2013-05-13 15:32:00,56.3,26.1,29.95,WNW,296,3.0,20.0,31,0.00,,,0.00,VWS V14.01,2013-05-13 19:32:00,
2013-05-13 15:34:00,56.3,26.1,29.95,WNW,298,17.0,20.0,31,0.00,,,0.00,VWS V14.01,2013-05-13 19:34:00,
2013-05-13 15:37:00,56.3,26.1,29.95,West,273,5.0,18.0,31,0.00,,,0.00,VWS V14.01,2013-05-13 19:37:00,
2013-05-13 15:38:00,56.3,26.1,29.95,WNW,294,10.0,18.0,31,0.00,,,0.00,VWS V14.01,2013-05-13 19:38:00,
2013-05-13 15:39:00,56.3,26.1,29.95,WNW,290,12.0,18.0,31,0.00,,,0.00,VWS V14.01,2013-05-13 19:39:00,
2013-05-13 15:40:00,56.2,25.2,29.95,NW,313,17.0,18.0,30,0.00,,,0.00,VWS V14.01,2013-05-13 19:40:00,
2013-05-13 15:41:00,56.2,25.2,29.95,WNW,292,6.0,18.0,30,0.00,,,0.00,VWS V14.01,2013-05-13 19:41:00,
2013-05-13 15:43:00,55.9,24.9,29.95,WNW,302,6.0,21.0,30,0.00,,,0.00,VWS V14.01,2013-05-13 19:43:00,
2013-05-13 15:45:00,55.7,25.5,29.95,NW,309,15.0,21.0,31,0.00,,,0.00,VWS V14.01,2013-05-13 19:45:00,
2013-05-13 15:48:00,55.7,25.5,29.95,West,263,7.0,21.0,31,0.00,,,0.00,VWS V14.01,2013-05-13 19:48:00,
2013-05-13 15:49:00,55.7,25.5,29.95,West,277,6.0,21.0,31,0.00,,,0.00,VWS V14.01,2013-05-13 19:49:00,
2013-05-13 15:50:00,55.7,26.3,29.95,WNW,302,10.0,21.0,32,0.00,,,0.00,VWS V14.01,2013-05-13 19:50:00,
2013-05-13 15:51:00,55.9,26.5,29.95,West,281,10.0,21.0,32,0.00,,,0.00,VWS V14.01,2013-05-13 19:51:00,
2013-05-13 15:53:00,55.9,25.7,29.95,WNW,295,13.0,21.0,31,0.00,,,0.00,VWS V14.01,2013-05-13 19:53:00,
2013-05-13 15:55:00,55.9,25.7,29.95,NNW,328,15.0,21.0,31,0.00,,,0.00,VWS V14.01,2013-05-13 19:55:00,
2013-05-13 15:56:00,55.9,26.5,29.95,WNW,289,13.0,21.0,32,0.00,,,0.00,VWS V14.01,2013-05-13 19:56:00,
2013-05-13 15:57:00,55.9,25.7,29.95,WNW,300,8.0,21.0,31,0.00,,,0.00,VWS V14.01,2013-05-13 19:57:00,
2013-05-13 16:00:00,56.3,26.1,29.95,WNW,291,0.0,21.0,31,0.00,,,0.00,VWS V14.01,2013-05-13 20:00:00,
2013-05-13 16:01:00,56.6,27.1,29.95,WNW,284,10.0,21.0,32,0.00,,,0.00,VWS V14.01,2013-05-13 20:01:00,
2013-05-13 16:03:00,56.6,26.3,29.95,West,277,16.0,21.0,31,0.00,,,0.00,VWS V14.01,2013-05-13 20:03:00,
2013-05-13 16:05:00,56.5,26.2,29.95,SW,221,6.0,16.0,31,0.00,,,0.00,VWS V14.01,2013-05-13 20:05:00,
2013-05-13 16:06:00,56.3,26.1,29.95,NNW,336,9.0,16.0,31,0.00,,,0.00,VWS V14.01,2013-05-13 20:06:00,
2013-05-13 16:09:00,55.9,25.7,29.95,NW,306,14.0,19.0,31,0.00,,,0.00,VWS V14.01,2013-05-13 20:09:00,
2013-05-13 16:10:00,55.7,25.5,29.95,West,281,13.0,20.0,31,0.00,,,0.00,VWS V14.01,2013-05-13 20:10:00,
2013-05-13 16:14:00,55.4,25.3,29.95,NW,319,7.0,21.0,31,0.00,,,0.00,VWS V14.01,2013-05-13 20:14:00,
2013-05-13 16:15:00,55.3,25.2,29.95,NW,320,6.0,21.0,31,0.00,,,0.00,VWS V14.01,2013-05-13 20:15:00,
2013-05-13 16:16:00,55.3,26.7,29.95,NNE,20,4.0,21.0,33,0.00,,,0.00,VWS V14.01,2013-05-13 20:16:00,
2013-05-13 16:19:00,55.6,26.2,29.95,WNW,303,1.0,21.0,32,0.00,,,0.00,VWS V14.01,2013-05-13 20:19:00,
2013-05-13 16:20:00,55.6,26.2,29.95,NNW,334,7.0,21.0,32,0.00,,,0.00,VWS V14.01,2013-05-13 20:20:00,
2013-05-13 16:21:00,55.6,25.5,29.95,NNW,330,10.0,21.0,31,0.00,,,0.00,VWS V14.01,2013-05-13 20:21:00,
2013-05-13 16:23:00,55.7,26.3,29.95,NW,309,13.0,21.0,32,0.00,,,0.00,VWS V14.01,2013-05-13 20:23:00,
2013-05-13 16:24:00,55.9,25.7,29.95,WNW,302,12.0,21.0,31,0.00,,,0.00,VWS V14.01,2013-05-13 20:24:00,
2013-05-13 16:26:00,56.0,26.6,29.95,West,277,9.0,21.0,32,0.00,,,0.00,VWS V14.01,2013-05-13 20:26:00,
2013-05-13 16:27:00,56.2,26.0,29.95,WNW,282,6.0,21.0,31,0.00,,,0.00,VWS V14.01,2013-05-13 20:27:00,
2013-05-13 16:29:00,56.2,26.0,29.95,WNW,292,5.0,21.0,31,0.00,,,0.00,VWS V14.01,2013-05-13 20:29:00,
2013-05-13 16:30:00,56.2,26.0,29.95,WNW,293,12.0,21.0,31,0.00,,,0.00,VWS V14.01,2013-05-13 20:30:00,
2013-05-13 16:32:00,56.0,25.8,29.95,WNW,284,18.0,21.0,31,0.00,,,0.00,VWS V14.01,2013-05-13 20:32:00,
2013-05-13 16:36:00,56.5,25.5,29.95,NW,304,8.0,21.0,30,0.00,,,0.00,VWS V14.01,2013-05-13 20:36:00,
2013-05-13 16:39:00,56.2,25.2,29.95,West,277,8.0,21.0,30,0.00,,,0.00,VWS V14.01,2013-05-13 20:39:00,
2013-05-13 16:40:00,56.2,25.2,29.95,WNW,298,3.0,21.0,30,0.00,,,0.00,VWS V14.01,2013-05-13 20:40:00,
2013-05-13 16:42:00,56.0,25.8,29.95,NW,311,11.0,21.0,31,0.00,,,0.00,VWS V14.01,2013-05-13 20:42:00,
2013-05-13 16:46:00,55.7,25.5,29.95,WNW,303,16.0,21.0,31,0.00,,,0.00,VWS V14.01,2013-05-13 20:46:00,
2013-05-13 16:47:00,55.6,25.5,29.95,NW,310,14.0,21.0,31,0.00,,,0.00,VWS V14.01,2013-05-13 20:47:00,
2013-05-13 16:50:00,55.1,24.2,29.95,WNW,300,6.0,21.0,30,0.00,,,0.00,VWS V14.01,2013-05-13 20:50:00,
2013-05-13 16:51:00,55.1,25.0,29.95,NNW,334,11.0,21.0,31,0.00,,,0.00,VWS V14.01,2013-05-13 20:51:00,
2013-05-13 16:52:00,55.1,25.8,29.95,WNW,295,11.0,21.0,32,0.00,,,0.00,VWS V14.01,2013-05-13 20:52:00,
2013-05-13 16:53:00,55.1,25.8,29.95,NW,313,7.0,21.0,32,0.00,,,0.00,VWS V14.01,2013-05-13 20:53:00,
2013-05-13 16:56:00,55.3,26.0,29.95,NW,307,5.0,21.0,32,0.00,,,0.00,VWS V14.01,2013-05-13 20:56:00,
2013-05-13 16:57:00,55.4,25.3,29.95,WNW,282,3.0,21.0,31,0.00,,,0.00,VWS V14.01,2013-05-13 20:57:00,
2013-05-13 16:58:00,55.4,25.3,29.95,West,269,9.0,21.0,31,0.00,,,0.00,VWS V14.01,2013-05-13 20:58:00,
2013-05-13 17:00:00,55.4,25.3,29.95,WNW,290,9.0,21.0,31,0.00,,,0.00,VWS V14.01,2013-05-13 21:00:00,
2013-05-13 17:03:00,55.1,25.0,29.95,NW,308,0.0,21.0,31,0.00,,,0.00,VWS V14.01,2013-05-13 21:03:00,
2013-05-13 17:04:00,55.1,24.2,29.95,WNW,293,8.0,21.0,30,0.00,,,0.00,VWS V14.01,2013-05-13 21:04:00,
2013-05-13 17:05:00,55.1,24.2,29.95,West,269,5.0,15.0,30,0.00,,,0.00,VWS V14.01,2013-05-13 21:05:00,
2013-05-13 17:06:00,55.0,24.2,29.95,West,270,14.0,15.0,30,0.00,,,0.00,VWS V14.01,2013-05-13 21:06:00,
2013-05-13 17:08:00,54.8,23.2,29.95,WNW,299,11.0,18.0,29,0.00,,,0.00,VWS V14.01,2013-05-13 21:08:00,
2013-05-13 17:11:00,54.7,23.9,29.95,WNW,290,8.0,19.0,30,0.00,,,0.00,VWS V14.01,2013-05-13 21:11:00,
2013-05-13 17:12:00,54.8,24.8,29.95,NW,315,9.0,19.0,31,0.00,,,0.00,VWS V14.01,2013-05-13 21:12:00,
2013-05-13 17:13:00,55.0,24.2,29.95,WNW,302,9.0,19.0,30,0.00,,,0.00,VWS V14.01,2013-05-13 21:13:00,
2013-05-13 17:14:00,55.0,23.4,29.95,NNW,340,5.0,19.0,29,0.00,,,0.00,VWS V14.01,2013-05-13 21:14:00,
2013-05-13 17:17:00,55.1,23.4,29.95,WNW,290,12.0,19.0,29,0.00,,,0.00,VWS V14.01,2013-05-13 21:17:00,
2013-05-13 17:20:00,55.3,23.6,29.95,West,281,14.0,19.0,29,0.00,,,0.00,VWS V14.01,2013-05-13 21:20:00,
2013-05-13 17:22:00,55.3,22.8,29.95,WNW,299,6.0,19.0,28,0.00,,,0.00,VWS V14.01,2013-05-13 21:22:00,
2013-05-13 17:24:00,55.6,24.7,29.95,WNW,284,11.0,19.0,30,0.00,,,0.00,VWS V14.01,2013-05-13 21:24:00,
2013-05-13 17:25:00,55.6,25.5,29.95,WNW,295,10.0,19.0,31,0.00,,,0.00,VWS V14.01,2013-05-13 21:25:00,
2013-05-13 17:29:00,55.4,23.7,29.95,NNW,329,9.0,20.0,29,0.00,,,0.00,VWS V14.01,2013-05-13 21:29:00,
2013-05-13 17:30:00,55.3,23.6,29.95,West,279,3.0,20.0,29,0.00,,,0.00,VWS V14.01,2013-05-13 21:30:00,
2013-05-13 17:31:00,55.3,24.4,29.95,WNW,297,16.0,20.0,30,0.00,,,0.00,VWS V14.01,2013-05-13 21:31:00,
2013-05-13 17:33:00,55.3,24.4,29.95,West,281,5.0,20.0,30,0.00,,,0.00,VWS V14.01,2013-05-13 21:33:00,
2013-05-13 17:34:00,55.1,23.4,29.95,West,266,10.0,20.0,29,0.00,,,0.00,VWS V14.01,2013-05-13 21:34:00,
2013-05-13 17:36:00,55.1,24.2,29.95,NW,321,7.0,11.0,30,0.00,,,0.00,VWS V14.01,2013-05-13 21:36:00,
2013-05-13 17:40:00,55.6,25.5,29.95,North,350,10.0,11.0,31,0.00,,,0.00,VWS V14.01,2013-05-13 21:40:00,
2013-05-13 17:41:00,55.7,24.8,29.95,WNW,288,12.0,16.0,30,0.00,,,0.00,VWS V14.01,2013-05-13 21:41:00,
2013-05-13 17:43:00,55.7,24.0,29.95,WNW,300,7.0,17.0,29,0.00,,,0.00,VWS V14.01,2013-05-13 21:43:00,
2013-05-13 17:44:00,55.7,24.0,29.95,West,271,13.0,17.0,29,0.00,,,0.00,VWS V14.01,2013-05-13 21:44:00,
2013-05-13 17:45:00,55.6,23.0,29.95,West,280,13.0,17.0,28,0.00,,,0.00,VWS V14.01,2013-05-13 21:45:00,
2013-05-13 17:49:00,55.4,24.5,29.95,WNW,296,11.0,17.0,30,0.00,,,0.00,VWS V14.01,2013-05-13 21:49:00,
2013-05-13 17:50:00,55.6,24.7,29.95,WNW,291,11.0,17.0,30,0.00,,,0.00,VWS V14.01,2013-05-13 21:50:00,
2013-05-13 17:52:00,55.7,24.0,29.95,WNW,303,10.0,17.0,29,0.00,,,0.00,VWS V14.01,2013-05-13 21:52:00,
2013-05-13 17:53:00,55.9,23.3,29.95,WNW,286,12.0,17.0,28,0.00,,,0.00,VWS V14.01,2013-05-13 21:53:00,
2013-05-13 17:56:00,55.9,24.1,29.95,NNW,347,10.0,17.0,29,0.00,,,0.00,VWS V14.01,2013-05-13 21:56:00,
2013-05-13 17:58:00,56.0,25.0,29.95,NW,318,17.0,17.0,30,0.00,,,0.00,VWS V14.01,2013-05-13 21:58:00,
2013-05-13 17:59:00,55.9,24.1,29.95,NNW,327,14.0,18.0,29,0.00,,,0.00,VWS V14.01,2013-05-13 21:59:00,
2013-05-13 18:03:00,56.0,24.2,29.95,West,281,1.0,18.0,29,0.00,,,0.00,VWS V14.01,2013-05-13 22:03:00,
2013-05-13 18:04:00,56.2,25.2,29.95,WNW,298,10.0,18.0,30,0.00,,,0.00,VWS V14.01,2013-05-13 22:04:00,
2013-05-13 18:05:00,56.0,24.2,29.95,NNW,331,8.0,14.0,29,0.00,,,0.00,VWS V14.01,2013-05-13 22:05:00,
2013-05-13 18:07:00,56.0,25.0,29.95,NW,320,4.0,14.0,30,0.00,,,0.00,VWS V14.01,2013-05-13 22:07:00,
2013-05-13 18:08:00,56.0,25.0,29.95,NW,315,2.0,14.0,30,0.00,,,0.00,VWS V14.01,2013-05-13 22:08:00,
2013-05-13 18:09:00,56.2,26.0,29.95,West,279,7.0,14.0,31,0.00,,,0.00,VWS V14.01,2013-05-13 22:09:00,
2013-05-13 18:11:00,56.3,26.1,29.95,WNW,301,0.0,14.0,31,0.00,,,0.00,VWS V14.01,2013-05-13 22:11:00,
2013-05-13 18:12:00,56.3,26.1,29.95,NW,324,4.0,14.0,31,0.00,,,0.00,VWS V14.01,2013-05-13 22:12:00,
2013-05-13 18:13:00,56.3,25.3,29.95,NW,309,10.0,14.0,30,0.00,,,0.00,VWS V14.01,2013-05-13 22:13:00,
2013-05-13 18:17:00,56.2,23.5,29.95,WNW,286,5.0,19.0,28,0.00,,,0.00,VWS V14.01,2013-05-13 22:17:00,
2013-05-13 18:18:00,56.0,22.5,29.95,WNW,284,2.0,19.0,27,0.00,,,0.00,VWS V14.01,2013-05-13 22:18:00,
2013-05-13 18:20:00,55.9,23.3,29.95,WNW,301,14.0,19.0,28,0.00,,,0.00,VWS V14.01,2013-05-13 22:20:00,
2013-05-13 18:22:00,55.9,24.1,29.95,NW,317,3.0,19.0,29,0.00,,,0.00,VWS V14.01,2013-05-13 22:22:00,
2013-05-13 18:23:00,55.9,24.9,29.95,NNW,330,7.0,19.0,30,0.00,,,0.00,VWS V14.01,2013-05-13 22:23:00,
2013-05-13 18:25:00,55.9,24.9,29.95,WNW,290,9.0,19.0,30,0.00,,,0.00,VWS V14.01,2013-05-13 22:25:00,
2013-05-13 18:26:00,55.9,24.9,29.95,WNW,294,4.0,19.0,30,0.00,,,0.00,VWS V14.01,2013-05-13 22:26:00,
2013-05-13 18:27:00,55.9,24.9,29.95,NW,320,8.0,19.0,30,0.00,,,0.00,VWS V14.01,2013-05-13 22:27:00,
2013-05-13 18:28:00,55.9,24.1,29.95,WNW,296,6.0,19.0,29,0.00,,,0.00,VWS V14.01,2013-05-13 22:28:00,
2013-05-13 18:29:00,56.0,25.0,29.95,WNW,302,12.0,19.0,30,0.00,,,0.00,VWS V14.01,2013-05-13 22:29:00,
2013-05-13 18:30:00,55.9,23.3,29.95,WNW,295,9.0,19.0,28,0.00,,,0.00,VWS V14.01,2013-05-13 22:30:00,
2013-05-13 18:34:00,55.6,23.0,29.95,WNW,302,8.0,20.0,28,0.00,,,0.00,VWS V14.01,2013-05-13 22:34:00,
2013-05-13 18:36:00,55.6,23.0,29.95,West,276,6.0,18.0,28,0.00,,,0.00,VWS V14.01,2013-05-13 22:36:00,
2013-05-13 18:38:00,55.4,22.9,29.95,WNW,298,12.0,18.0,28,0.00,,,0.00,VWS V14.01,2013-05-13 22:38:00,
2013-05-13 18:39:00,55.3,21.9,29.95,WNW,298,12.0,18.0,27,0.00,,,0.00,VWS V14.01,2013-05-13 22:39:00,
2013-05-13 18:41:00,55.1,21.7,29.95,NW,315,11.0,18.0,27,0.00,,,0.00,VWS V14.01,2013-05-13 22:41:00,
2013-05-13 18:43:00,55.0,22.5,29.95,NW,309,4.0,18.0,28,0.00,,,0.00,VWS V14.01,2013-05-13 22:43:00,
2013-05-13 18:44:00,55.0,24.2,29.95,WNW,292,3.0,18.0,30,0.00,,,0.00,VWS V14.01,2013-05-13 22:44:00,
2013-05-13 18:45:00,55.0,23.4,29.95,NW,313,6.0,18.0,29,0.00,,,0.00,VWS V14.01,2013-05-13 22:45:00,
2013-05-13 18:50:00,54.4,23.6,29.95,WNW,286,8.0,18.0,30,0.00,,,0.00,VWS V14.01,2013-05-13 22:50:00,
2013-05-13 18:51:00,54.4,24.4,29.95,NW,304,8.0,18.0,31,0.00,,,0.00,VWS V14.01,2013-05-13 22:51:00,
2013-05-13 18:53:00,54.1,24.2,29.95,NW,313,12.0,18.0,31,0.00,,,0.00,VWS V14.01,2013-05-13 22:53:00,
2013-05-13 18:55:00,54.1,23.4,29.95,WNW,296,6.0,18.0,30,0.00,,,0.00,VWS V14.01,2013-05-13 22:55:00,
2013-05-13 18:56:00,54.1,23.4,29.95,WNW,292,5.0,18.0,30,0.00,,,0.00,VWS V14.01,2013-05-13 22:56:00,
2013-05-13 18:57:00,53.9,23.2,29.95,WNW,302,11.0,18.0,30,0.00,,,0.00,VWS V14.01,2013-05-13 22:57:00,
2013-05-13 18:59:00,53.9,23.2,29.95,NNW,339,9.0,18.0,30,0.00,,,0.00,VWS V14.01,2013-05-13 22:59:00,
2013-05-13 19:01:00,53.9,23.2,29.95,WNW,299,7.0,18.0,30,0.00,,,0.00,VWS V14.01,2013-05-13 23:01:00,
2013-05-13 19:02:00,54.1,23.4,29.95,West,278,11.0,18.0,30,0.00,,,0.00,VWS V14.01,2013-05-13 23:02:00,
2013-05-13 19:03:00,54.1,23.4,29.95,NW,312,4.0,18.0,30,0.00,,,0.00,VWS V14.01,2013-05-13 23:03:00,
2013-05-13 19:04:00,54.1,23.4,29.96,WNW,289,10.0,18.0,30,0.00,,,0.00,VWS V14.01,2013-05-13 23:04:00,
2013-05-13 19:05:00,54.1,23.4,29.96,NW,309,7.0,11.0,30,0.00,,,0.00,VWS V14.01,2013-05-13 23:05:00,
2013-05-13 19:08:00,54.1,23.4,29.96,WNW,302,5.0,11.0,30,0.00,,,0.00,VWS V14.01,2013-05-13 23:08:00,
2013-05-13 19:10:00,54.1,23.4,29.96,NW,318,7.0,11.0,30,0.00,,,0.00,VWS V14.01,2013-05-13 23:10:00,
2013-05-13 19:12:00,54.1,22.6,29.96,NW,315,10.0,11.0,29,0.00,,,0.00,VWS V14.01,2013-05-13 23:12:00,
2013-05-13 19:14:00,53.9,22.4,29.96,NW,306,9.0,14.0,29,0.00,,,0.00,VWS V14.01,2013-05-13 23:14:00,
2013-05-13 19:16:00,53.8,22.3,29.96,WNW,295,3.0,14.0,29,0.00,,,0.00,VWS V14.01,2013-05-13 23:16:00,
2013-05-13 19:18:00,53.6,22.9,29.96,NW,311,10.0,14.0,30,0.00,,,0.00,VWS V14.01,2013-05-13 23:18:00,
2013-05-13 19:19:00,53.6,22.9,29.96,West,279,0.0,14.0,30,0.00,,,0.00,VWS V14.01,2013-05-13 23:19:00,
2013-05-13 19:20:00,53.6,22.9,29.96,West,279,5.0,14.0,30,0.00,,,0.00,VWS V14.01,2013-05-13 23:20:00,
2013-05-13 19:21:00,53.5,22.9,29.96,WNW,302,9.0,14.0,30,0.00,,,0.00,VWS V14.01,2013-05-13 23:21:00,
2013-05-13 19:23:00,53.5,22.0,29.96,NNW,338,6.0,14.0,29,0.00,,,0.00,VWS V14.01,2013-05-13 23:23:00,
2013-05-13 19:27:00,53.3,22.7,29.96,NW,312,3.0,14.0,30,0.00,,,0.00,VWS V14.01,2013-05-13 23:27:00,
2013-05-13 19:28:00,53.3,22.7,29.96,NW,313,10.0,14.0,30,0.00,,,0.00,VWS V14.01,2013-05-13 23:28:00,
2013-05-13 19:31:00,53.2,22.6,29.96,NNW,329,1.0,14.0,30,0.00,,,0.00,VWS V14.01,2013-05-13 23:31:00,
2013-05-13 19:32:00,53.2,23.4,29.96,NNW,331,2.0,14.0,31,0.00,,,0.00,VWS V14.01,2013-05-13 23:32:00,
2013-05-13 19:33:00,53.2,23.4,29.96,NNW,331,0.0,14.0,31,0.00,,,0.00,VWS V14.01,2013-05-13 23:33:00,
2013-05-13 19:36:00,53.1,23.3,29.96,WNW,298,0.0,13.0,31,0.00,,,0.00,VWS V14.01,2013-05-13 23:36:00,
2013-05-13 19:37:00,53.1,23.3,29.96,WNW,303,4.0,13.0,31,0.00,,,0.00,VWS V14.01,2013-05-13 23:37:00,
2013-05-13 19:38:00,53.1,23.3,29.96,NW,319,4.0,13.0,31,0.00,,,0.00,VWS V14.01,2013-05-13 23:38:00,
2013-05-13 19:41:00,52.9,23.1,29.96,WNW,294,2.0,13.0,31,0.00,,,0.00,VWS V14.01,2013-05-13 23:41:00,
2013-05-13 19:42:00,52.9,23.9,29.96,WNW,284,8.0,13.0,32,0.00,,,0.00,VWS V14.01,2013-05-13 23:42:00,
2013-05-13 19:43:00,52.9,23.9,29.96,NW,324,7.0,13.0,32,0.00,,,0.00,VWS V14.01,2013-05-13 23:43:00,
2013-05-13 19:46:00,52.8,23.0,29.96,NW,319,10.0,13.0,31,0.00,,,0.00,VWS V14.01,2013-05-13 23:46:00,
2013-05-13 19:48:00,52.8,23.0,29.96,NW,312,7.0,13.0,31,0.00,,,0.00,VWS V14.01,2013-05-13 23:48:00,
2013-05-13 19:49:00,52.6,22.9,29.97,WNW,296,3.0,13.0,31,0.00,,,0.00,VWS V14.01,2013-05-13 23:49:00,
2013-05-13 19:50:00,52.6,23.6,29.97,West,275,15.0,15.0,32,0.00,,,0.00,VWS V14.01,2013-05-13 23:50:00,
2013-05-13 19:52:00,52.6,22.9,29.97,WNW,297,7.0,17.0,31,0.00,,,0.00,VWS V14.01,2013-05-13 23:52:00,
2013-05-13 19:54:00,52.5,23.5,29.97,WNW,290,10.0,17.0,32,0.00,,,0.00,VWS V14.01,2013-05-13 23:54:00,
2013-05-13 19:55:00,52.5,23.5,29.97,NW,310,2.0,17.0,32,0.00,,,0.00,VWS V14.01,2013-05-13 23:55:00,
2013-05-13 19:56:00,52.3,24.1,29.97,WNW,288,3.0,17.0,33,0.00,,,0.00,VWS V14.01,2013-05-13 23:56:00,
2013-05-13 19:57:00,52.3,24.1,29.97,WNW,289,5.0,17.0,33,0.00,,,0.00,VWS V14.01,2013-05-13 23:57:00,
2013-05-13 20:02:00,52.2,24.0,29.97,NW,304,7.0,17.0,33,0.00,,,0.00,VWS V14.01,2013-05-14 00:02:00,
2013-05-13 20:03:00,52.2,24.0,29.97,WNW,298,6.0,17.0,33,0.00,,,0.00,VWS V14.01,2013-05-14 00:03:00,
2013-05-13 20:04:00,52.0,23.8,29.98,WNW,286,5.0,17.0,33,0.00,,,0.00,VWS V14.01,2013-05-14 00:04:00,
2013-05-13 20:07:00,52.0,23.8,29.98,WNW,300,6.0,12.0,33,0.00,,,0.00,VWS V14.01,2013-05-14 00:07:00,
2013-05-13 20:08:00,52.0,23.8,29.98,WNW,284,3.0,12.0,33,0.00,,,0.00,VWS V14.01,2013-05-14 00:08:00,
2013-05-13 20:09:00,52.0,24.5,29.98,WNW,292,5.0,12.0,34,0.00,,,0.00,VWS V14.01,2013-05-14 00:09:00,
2013-05-13 20:12:00,51.9,24.4,29.98,West,270,8.0,12.0,34,0.00,,,0.00,VWS V14.01,2013-05-14 00:12:00,
2013-05-13 20:13:00,51.9,24.4,29.98,West,275,6.0,12.0,34,0.00,,,0.00,VWS V14.01,2013-05-14 00:13:00,
2013-05-13 20:14:00,51.7,24.3,29.98,WNW,302,5.0,12.0,34,0.00,,,0.00,VWS V14.01,2013-05-14 00:14:00,
2013-05-13 20:15:00,51.7,24.3,29.98,West,280,0.0,12.0,34,0.00,,,0.00,VWS V14.01,2013-05-14 00:15:00,
2013-05-13 20:18:00,51.6,24.2,29.98,NW,317,0.0,12.0,34,0.00,,,0.00,VWS V14.01,2013-05-14 00:18:00,
2013-05-13 20:19:00,51.6,24.9,29.98,WNW,288,2.0,12.0,35,0.00,,,0.00,VWS V14.01,2013-05-14 00:19:00,
2013-05-13 20:21:00,51.6,24.9,29.98,NW,321,6.0,12.0,35,0.00,,,0.00,VWS V14.01,2013-05-14 00:21:00,
2013-05-13 20:23:00,51.4,24.7,29.98,NW,305,6.0,12.0,35,0.00,,,0.00,VWS V14.01,2013-05-14 00:23:00,
2013-05-13 20:26:00,51.3,24.6,29.98,NW,315,5.0,12.0,35,0.00,,,0.00,VWS V14.01,2013-05-14 00:26:00,
2013-05-13 20:28:00,51.3,24.6,29.98,NW,313,7.0,12.0,35,0.00,,,0.00,VWS V14.01,2013-05-14 00:28:00,
2013-05-13 20:29:00,51.3,24.6,29.98,NW,304,3.0,12.0,35,0.00,,,0.00,VWS V14.01,2013-05-14 00:29:00,
2013-05-13 20:30:00,51.3,24.6,29.98,WNW,303,0.0,12.0,35,0.00,,,0.00,VWS V14.01,2013-05-14 00:30:00,
2013-05-13 20:32:00,51.3,25.3,29.98,WNW,302,8.0,12.0,36,0.00,,,0.00,VWS V14.01,2013-05-14 00:32:00,
2013-05-13 20:33:00,51.3,25.3,29.99,WNW,293,6.0,12.0,36,0.00,,,0.00,VWS V14.01,2013-05-14 00:33:00,
2013-05-13 20:34:00,51.1,25.1,29.99,WNW,294,6.0,12.0,36,0.00,,,0.00,VWS V14.01,2013-05-14 00:34:00,
2013-05-13 20:36:00,51.1,25.1,29.99,NW,306,3.0,7.0,36,0.00,,,0.00,VWS V14.01,2013-05-14 00:36:00,
2013-05-13 20:38:00,51.1,25.1,29.99,WNW,301,6.0,8.0,36,0.00,,,0.00,VWS V14.01,2013-05-14 00:38:00,
2013-05-13 20:39:00,51.0,25.0,29.99,WNW,301,1.0,8.0,36,0.00,,,0.00,VWS V14.01,2013-05-14 00:39:00,
2013-05-13 20:40:00,51.0,25.7,29.99,WNW,298,4.0,8.0,37,0.00,,,0.00,VWS V14.01,2013-05-14 00:40:00,
2013-05-13 20:42:00,51.0,25.7,29.99,NW,306,1.0,8.0,37,0.00,,,0.00,VWS V14.01,2013-05-14 00:42:00,
2013-05-13 20:44:00,50.8,25.5,29.99,NW,304,4.0,9.0,37,0.00,,,0.00,VWS V14.01,2013-05-14 00:44:00,
2013-05-13 20:46:00,50.7,25.4,29.99,WNW,302,0.0,10.0,37,0.00,,,0.00,VWS V14.01,2013-05-14 00:46:00,
2013-05-13 20:48:00,50.7,25.4,30.00,NW,317,2.0,10.0,37,0.00,,,0.00,VWS V14.01,2013-05-14 00:48:00,
2013-05-13 20:49:00,50.7,25.4,30.00,NW,311,3.0,10.0,37,0.00,,,0.00,VWS V14.01,2013-05-14 00:49:00,
2013-05-13 20:52:00,50.5,25.9,30.00,NW,311,3.0,10.0,38,0.00,,,0.00,VWS V14.01,2013-05-14 00:52:00,
2013-05-13 20:54:00,50.5,25.9,30.00,NW,306,3.0,10.0,38,0.00,,,0.00,VWS V14.01,2013-05-14 00:54:00,
2013-05-13 20:55:00,50.5,25.9,30.00,WNW,297,6.0,10.0,38,0.00,,,0.00,VWS V14.01,2013-05-14 00:55:00,
2013-05-13 20:57:00,50.5,25.9,30.00,WNW,301,2.0,10.0,38,0.00,,,0.00,VWS V14.01,2013-05-14 00:57:00,
2013-05-13 20:58:00,50.4,26.4,30.00,WNW,296,1.0,10.0,39,0.00,,,0.00,VWS V14.01,2013-05-14 00:58:00,
2013-05-13 20:59:00,50.4,26.4,30.00,WNW,296,0.0,10.0,39,0.00,,,0.00,VWS V14.01,2013-05-14 00:59:00,
2013-05-13 21:01:00,50.4,26.4,30.00,NW,307,0.0,10.0,39,0.00,,,0.00,VWS V14.01,2013-05-14 01:01:00,
2013-05-13 21:03:00,50.2,26.2,30.01,NW,313,3.0,10.0,39,0.00,,,0.00,VWS V14.01,2013-05-14 01:03:00,
2013-05-13 21:04:00,50.2,26.2,30.01,NW,313,5.0,10.0,39,0.00,,,0.00,VWS V14.01,2013-05-14 01:04:00,
2013-05-13 21:06:00,50.1,26.1,30.01,NNW,327,3.0,7.0,39,0.00,,,0.00,VWS V14.01,2013-05-14 01:06:00,
2013-05-13 21:10:00,49.9,26.0,30.01,NNW,327,2.0,10.0,39,0.00,,,0.00,VWS V14.01,2013-05-14 01:10:00,
2013-05-13 21:11:00,49.9,26.6,30.01,NW,304,6.0,10.0,40,0.00,,,0.00,VWS V14.01,2013-05-14 01:11:00,
2013-05-13 21:12:00,49.9,26.6,30.01,NW,325,6.0,10.0,40,0.00,,,0.00,VWS V14.01,2013-05-14 01:12:00,
2013-05-13 21:13:00,49.9,27.1,30.01,NW,319,6.0,10.0,41,0.00,,,0.00,VWS V14.01,2013-05-14 01:13:00,
2013-05-13 21:16:00,49.8,27.1,30.01,NW,325,9.0,11.0,41,0.00,,,0.00,VWS V14.01,2013-05-14 01:16:00,
2013-05-13 21:18:00,49.8,27.1,30.02,NNW,336,8.0,11.0,41,0.00,,,0.00,VWS V14.01,2013-05-14 01:18:00,
2013-05-13 21:20:00,49.8,27.6,30.02,NW,325,3.0,11.0,42,0.00,,,0.00,VWS V14.01,2013-05-14 01:20:00,
2013-05-13 21:23:00,49.8,27.6,30.02,NNW,338,3.0,11.0,42,0.00,,,0.00,VWS V14.01,2013-05-14 01:23:00,
2013-05-13 21:24:00,49.8,28.2,30.02,NNW,342,7.0,11.0,43,0.00,,,0.00,VWS V14.01,2013-05-14 01:24:00,
2013-05-13 21:25:00,49.6,28.0,30.02,NNW,336,7.0,11.0,43,0.00,,,0.00,VWS V14.01,2013-05-14 01:25:00,
2013-05-13 21:29:00,49.6,28.0,30.02,NW,304,2.0,11.0,43,0.00,,,0.00,VWS V14.01,2013-05-14 01:29:00,
2013-05-13 21:30:00,49.6,28.0,30.02,NW,306,5.0,11.0,43,0.00,,,0.00,VWS V14.01,2013-05-14 01:30:00,
2013-05-13 21:32:00,49.6,28.0,30.02,NW,323,5.0,11.0,43,0.00,,,0.00,VWS V14.01,2013-05-14 01:32:00,
2013-05-13 21:34:00,49.6,28.6,30.02,NW,319,7.0,11.0,44,0.00,,,0.00,VWS V14.01,2013-05-14 01:34:00,
2013-05-13 21:37:00,49.6,28.6,30.02,NNW,330,4.0,10.0,44,0.00,,,0.00,VWS V14.01,2013-05-14 01:37:00,
2013-05-13 21:38:00,49.5,28.5,30.02,NW,320,6.0,10.0,44,0.00,,,0.00,VWS V14.01,2013-05-14 01:38:00,
2013-05-13 21:40:00,49.5,28.5,30.02,NW,310,7.0,10.0,44,0.00,,,0.00,VWS V14.01,2013-05-14 01:40:00,
2013-05-13 21:42:00,49.5,28.5,30.02,NNW,338,0.0,10.0,44,0.00,,,0.00,VWS V14.01,2013-05-14 01:42:00,
2013-05-13 21:43:00,49.5,29.1,30.02,NW,326,2.0,10.0,45,0.00,,,0.00,VWS V14.01,2013-05-14 01:43:00,
2013-05-13 21:45:00,49.5,29.1,30.02,WNW,296,0.0,10.0,45,0.00,,,0.00,VWS V14.01,2013-05-14 01:45:00,
2013-05-13 21:46:00,49.5,29.1,30.02,NW,323,6.0,10.0,45,0.00,,,0.00,VWS V14.01,2013-05-14 01:46:00,
2013-05-13 21:47:00,49.5,29.1,30.02,NW,325,3.0,10.0,45,0.00,,,0.00,VWS V14.01,2013-05-14 01:47:00,
2013-05-13 21:51:00,49.4,29.5,30.04,NW,304,8.0,10.0,46,0.00,,,0.00,VWS V14.01,2013-05-14 01:51:00,
2013-05-13 21:52:00,49.4,29.5,30.04,NW,306,1.0,10.0,46,0.00,,,0.00,VWS V14.01,2013-05-14 01:52:00,
2013-05-13 21:53:00,49.4,29.5,30.04,NW,318,0.0,10.0,46,0.00,,,0.00,VWS V14.01,2013-05-14 01:53:00,
2013-05-13 21:58:00,49.2,29.9,30.04,NW,319,6.0,10.0,47,0.00,,,0.00,VWS V14.01,2013-05-14 01:58:00,
2013-05-13 21:59:00,49.2,29.9,30.04,NW,317,6.0,10.0,47,0.00,,,0.00,VWS V14.01,2013-05-14 01:59:00,
2013-05-13 22:02:00,49.1,29.8,30.04,WNW,301,0.0,10.0,47,0.00,,,0.00,VWS V14.01,2013-05-14 02:02:00,
2013-05-13 22:06:00,48.9,29.6,30.04,NW,306,4.0,9.0,47,0.00,,,0.00,VWS V14.01,2013-05-14 02:06:00,
2013-05-13 22:07:00,48.9,29.6,30.04,NW,316,1.0,9.0,47,0.00,,,0.00,VWS V14.01,2013-05-14 02:07:00,
2013-05-13 22:10:00,48.8,29.5,30.04,NW,309,4.0,9.0,47,0.00,,,0.00,VWS V14.01,2013-05-14 02:10:00,
2013-05-13 22:11:00,48.8,30.0,30.04,NW,310,0.0,9.0,48,0.00,,,0.00,VWS V14.01,2013-05-14 02:11:00,
2013-05-13 22:13:00,48.6,29.8,30.04,NW,306,3.0,9.0,48,0.00,,,0.00,VWS V14.01,2013-05-14 02:13:00,
2013-05-13 22:16:00,48.6,29.8,30.04,NNW,327,3.0,9.0,48,0.00,,,0.00,VWS V14.01,2013-05-14 02:16:00,
2013-05-13 22:17:00,48.6,29.8,30.04,NW,325,2.0,9.0,48,0.00,,,0.00,VWS V14.01,2013-05-14 02:17:00,
2013-05-13 22:18:00,48.6,29.8,30.04,NW,325,1.0,9.0,48,0.00,,,0.00,VWS V14.01,2013-05-14 02:18:00,
2013-05-13 22:19:00,48.5,29.7,30.04,NW,323,1.0,9.0,48,0.00,,,0.00,VWS V14.01,2013-05-14 02:19:00,
2013-05-13 22:20:00,48.5,29.7,30.04,NW,321,2.0,9.0,48,0.00,,,0.00,VWS V14.01,2013-05-14 02:20:00,
2013-05-13 22:22:00,48.5,30.2,30.04,NW,320,2.0,9.0,49,0.00,,,0.00,VWS V14.01,2013-05-14 02:22:00,
2013-05-13 22:23:00,48.3,30.0,30.04,NNW,327,0.0,9.0,49,0.00,,,0.00,VWS V14.01,2013-05-14 02:23:00,
2013-05-13 22:25:00,48.3,30.0,30.04,NW,317,0.0,9.0,49,0.00,,,0.00,VWS V14.01,2013-05-14 02:25:00,
2013-05-13 22:27:00,48.2,30.0,30.04,NW,317,3.0,9.0,49,0.00,,,0.00,VWS V14.01,2013-05-14 02:27:00,
2013-05-13 22:28:00,48.2,30.0,30.04,NW,317,5.0,9.0,49,0.00,,,0.00,VWS V14.01,2013-05-14 02:28:00,
2013-05-13 22:30:00,48.0,29.8,30.04,NW,305,2.0,9.0,49,0.00,,,0.00,VWS V14.01,2013-05-14 02:30:00,
2013-05-13 22:32:00,48.0,29.8,30.04,NW,305,4.0,9.0,49,0.00,,,0.00,VWS V14.01,2013-05-14 02:32:00,
2013-05-13 22:33:00,48.0,29.8,30.04,NW,305,3.0,9.0,49,0.00,,,0.00,VWS V14.01,2013-05-14 02:33:00,
2013-05-13 22:35:00,48.0,30.3,30.04,NW,305,4.0,4.0,50,0.00,,,0.00,VWS V14.01,2013-05-14 02:35:00,
2013-05-13 22:38:00,47.9,30.2,30.04,NW,304,0.0,8.0,50,0.00,,,0.00,VWS V14.01,2013-05-14 02:38:00,
2013-05-13 22:39:00,47.9,30.2,30.04,NW,310,3.0,8.0,50,0.00,,,0.00,VWS V14.01,2013-05-14 02:39:00,
2013-05-13 22:40:00,47.7,30.0,30.04,NW,310,4.0,8.0,50,0.00,,,0.00,VWS V14.01,2013-05-14 02:40:00,
2013-05-13 22:42:00,47.7,30.0,30.04,NW,309,0.0,8.0,50,0.00,,,0.00,VWS V14.01,2013-05-14 02:42:00,
2013-05-13 22:45:00,47.6,29.9,30.04,NW,315,0.0,8.0,50,0.00,,,0.00,VWS V14.01,2013-05-14 02:45:00,
2013-05-13 22:48:00,47.6,30.4,30.04,NW,304,2.0,8.0,51,0.00,,,0.00,VWS V14.01,2013-05-14 02:48:00,
2013-05-13 22:49:00,47.6,30.4,30.04,NW,304,0.0,8.0,51,0.00,,,0.00,VWS V14.01,2013-05-14 02:49:00,
2013-05-13 22:52:00,47.4,30.2,30.04,WNW,303,6.0,8.0,51,0.00,,,0.00,VWS V14.01,2013-05-14 02:52:00,
2013-05-13 22:53:00,47.3,30.1,30.04,WNW,303,1.0,8.0,51,0.00,,,0.00,VWS V14.01,2013-05-14 02:53:00,
2013-05-13 22:54:00,47.3,30.1,30.04,WNW,303,4.0,8.0,51,0.00,,,0.00,VWS V14.01,2013-05-14 02:54:00,
2013-05-13 22:58:00,47.3,30.1,30.04,WNW,302,0.0,8.0,51,0.00,,,0.00,VWS V14.01,2013-05-14 02:58:00,
2013-05-13 22:59:00,47.3,30.1,30.04,NW,308,0.0,8.0,51,0.00,,,0.00,VWS V14.01,2013-05-14 02:59:00,
2013-05-13 23:00:00,47.3,30.1,30.04,NW,309,3.0,8.0,51,0.00,,,0.00,VWS V14.01,2013-05-14 03:00:00,
2013-05-13 23:03:00,47.1,30.4,30.04,NW,306,4.0,8.0,52,0.00,,,0.00,VWS V14.01,2013-05-14 03:03:00,
2013-05-13 23:04:00,47.1,30.4,30.04,NW,306,2.0,8.0,52,0.00,,,0.00,VWS V14.01,2013-05-14 03:04:00,
2013-05-13 23:05:00,47.1,30.4,30.04,NW,306,9.0,9.0,52,0.00,,,0.00,VWS V14.01,2013-05-14 03:05:00,
2013-05-13 23:08:00,47.0,30.3,30.04,NW,304,7.0,9.0,52,0.00,,,0.00,VWS V14.01,2013-05-14 03:08:00,
2013-05-13 23:10:00,47.0,30.3,30.04,NW,304,0.0,9.0,52,0.00,,,0.00,VWS V14.01,2013-05-14 03:10:00,
2013-05-13 23:12:00,46.8,30.1,30.04,NW,305,4.0,9.0,52,0.00,,,0.00,VWS V14.01,2013-05-14 03:12:00,
2013-05-13 23:14:00,46.7,30.5,30.04,NW,323,3.0,9.0,53,0.00,,,0.00,VWS V14.01,2013-05-14 03:14:00,
2013-05-13 23:15:00,46.7,30.5,30.04,NW,321,4.0,9.0,53,0.00,,,0.00,VWS V14.01,2013-05-14 03:15:00,
2013-05-13 23:16:00,46.7,30.5,30.04,NW,319,0.0,9.0,53,0.00,,,0.00,VWS V14.01,2013-05-14 03:16:00,
2013-05-13 23:17:00,46.5,30.3,30.04,NW,315,0.0,9.0,53,0.00,,,0.00,VWS V14.01,2013-05-14 03:17:00,
2013-05-13 23:19:00,46.5,30.3,30.03,NW,314,7.0,9.0,53,0.00,,,0.00,VWS V14.01,2013-05-14 03:19:00,
2013-05-13 23:20:00,46.5,30.3,30.03,NNW,336,3.0,9.0,53,0.00,,,0.00,VWS V14.01,2013-05-14 03:20:00,
2013-05-13 23:21:00,46.4,30.2,30.03,NNW,336,1.0,9.0,53,0.00,,,0.00,VWS V14.01,2013-05-14 03:21:00,
2013-05-13 23:24:00,46.4,30.7,30.03,NNW,328,0.0,9.0,54,0.00,,,0.00,VWS V14.01,2013-05-14 03:24:00,
2013-05-13 23:26:00,46.2,30.0,30.03,NW,323,4.0,9.0,53,0.00,,,0.00,VWS V14.01,2013-05-14 03:26:00,
2013-05-13 23:27:00,46.2,30.5,30.03,NW,323,0.0,9.0,54,0.00,,,0.00,VWS V14.01,2013-05-14 03:27:00,
2013-05-13 23:28:00,46.2,30.5,30.03,NNW,327,8.0,9.0,54,0.00,,,0.00,VWS V14.01,2013-05-14 03:28:00,
2013-05-13 23:29:00,46.2,30.5,30.03,NNW,329,2.0,9.0,54,0.00,,,0.00,VWS V14.01,2013-05-14 03:29:00,
2013-05-13 23:31:00,46.2,30.5,30.03,NW,319,9.0,10.0,54,0.00,,,0.00,VWS V14.01,2013-05-14 03:31:00,
2013-05-13 23:32:00,46.2,30.5,30.03,NW,313,4.0,10.0,54,0.00,,,0.00,VWS V14.01,2013-05-14 03:32:00,
2013-05-13 23:33:00,46.2,30.5,30.03,NNW,327,7.0,10.0,54,0.00,,,0.00,VWS V14.01,2013-05-14 03:33:00,
2013-05-13 23:35:00,46.2,30.5,30.04,NW,321,11.0,12.0,54,0.00,,,0.00,VWS V14.01,2013-05-14 03:35:00,
2013-05-13 23:38:00,46.2,30.5,30.04,NW,311,6.0,12.0,54,0.00,,,0.00,VWS V14.01,2013-05-14 03:38:00,
2013-05-13 23:40:00,46.2,30.5,30.04,NW,309,5.0,12.0,54,0.00,,,0.00,VWS V14.01,2013-05-14 03:40:00,
2013-05-13 23:41:00,46.2,30.9,30.04,NW,315,4.0,12.0,55,0.00,,,0.00,VWS V14.01,2013-05-14 03:41:00,
2013-05-13 23:43:00,46.2,30.9,30.04,WNW,283,5.0,12.0,55,0.00,,,0.00,VWS V14.01,2013-05-14 03:43:00,
2013-05-13 23:46:00,46.1,30.9,30.04,NW,304,6.0,12.0,55,0.00,,,0.00,VWS V14.01,2013-05-14 03:46:00,
2013-05-13 23:48:00,46.1,30.9,30.04,NW,313,4.0,12.0,55,0.00,,,0.00,VWS V14.01,2013-05-14 03:48:00,
2013-05-13 23:50:00,46.0,30.8,30.04,NW,317,7.0,12.0,55,0.00,,,0.00,VWS V14.01,2013-05-14 03:50:00,
2013-05-13 23:51:00,46.0,30.8,30.04,NW,318,2.0,12.0,55,0.00,,,0.00,VWS V14.01,2013-05-14 03:51:00,
2013-05-13 23:53:00,46.0,30.8,30.04,NW,321,4.0,12.0,55,0.00,,,0.00,VWS V14.01,2013-05-14 03:53:00,
2013-05-13 23:55:00,46.0,31.2,30.04,NW,309,4.0,12.0,56,0.00,,,0.00,VWS V14.01,2013-05-14 03:55:00,
2013-05-13 23:56:00,46.0,31.2,30.04,NNW,331,9.0,12.0,56,0.00,,,0.00,VWS V14.01,2013-05-14 03:56:00,
2013-05-13 23:59:00,46.0,31.2,30.04,NNW,336,2.0,12.0,56,0.00,,,0.00,VWS V14.01,2013-05-14 03:59:00,